SWR9PY LSZH-SBGL

Flight info

Callsign SWR9PY
Flight time 11h 1m
Altitude 35000
Route VEBIT T50 ROTOS Z669 MILPA N869 NINTU UN869 REPSI DCT NARAK DCT TIVLI N869 ZAR Z245 CJN N10 SVL N857 KORNO UN857 IBALU/N0470F370 UN857 TERTO N857 DEREV/N0473F360 N857 BIPET/N0471F380 N857 GUNET UW11 CVS/N0438F280 UB623 FNR/N0461F400 UN857 MOLSU
Aircraft A333/H-SDE3GHIJ2J3J5M1RVWXY/LB2D1

Departure

Time 2026-04-26 21:27
Airport Zürich Airport (LSZH)

Arrival

Time 2026-04-27 08:29
Airport Rio Galeão – Tom Jobim International Airport (SBGL)
Time Latitude Longitude Altitude Speed Heading
2026-04-26 20:52 47.46059 8.55433 1401 ft 0 kts
2026-04-26 21:15 47.46053 8.55432 1400 ft 4 kts
2026-04-26 21:15 47.46026 8.55428 1406 ft 4 kts
2026-04-26 21:15 47.46002 8.55422 1410 ft 2 kts 13°
2026-04-26 21:16 47.45982 8.55407 1409 ft 4 kts 60°
2026-04-26 21:16 47.45975 8.55371 1409 ft 5 kts 91°
2026-04-26 21:16 47.45977 8.55337 1408 ft 3 kts 96°
2026-04-26 21:16 47.45977 8.55336 1408 ft 7 kts 96°
2026-04-26 21:20 47.45976 8.55345 1408 ft 3 kts 96°
2026-04-26 21:21 47.45974 8.55368 1409 ft 3 kts 96°
2026-04-26 21:21 47.45972 8.55396 1409 ft 5 kts 96°
2026-04-26 21:21 47.45968 8.55453 1408 ft 5 kts 96°
2026-04-26 21:21 47.45964 8.55501 1407 ft 5 kts 96°
2026-04-26 21:22 47.45959 8.55579 1404 ft 8 kts 96°
2026-04-26 21:22 47.45954 8.55655 1402 ft 7 kts 96°
2026-04-26 21:22 47.45949 8.55728 1409 ft 7 kts 96°
2026-04-26 21:23 47.45939 8.55859 1406 ft 10 kts 96°
2026-04-26 21:23 47.45933 8.55955 1412 ft 8 kts 96°
2026-04-26 21:23 47.45927 8.56038 1414 ft 8 kts 96°
2026-04-26 21:23 47.45922 8.56110 1409 ft 6 kts 96°
2026-04-26 21:24 47.45917 8.56188 1409 ft 8 kts 96°
2026-04-26 21:24 47.45916 8.56270 1407 ft 9 kts 72°
2026-04-26 21:24 47.45947 8.56313 1412 ft 3 kts 11°
2026-04-26 21:24 47.45972 8.56319 1414 ft 4 kts
2026-04-26 21:25 47.46005 8.56325 1412 ft 6 kts
2026-04-26 21:25 47.46053 8.56333 1411 ft 10 kts
2026-04-26 21:25 47.46139 8.56344 1408 ft 14 kts
2026-04-26 21:25 47.46225 8.56311 1410 ft 12 kts 323°
2026-04-26 21:26 47.46258 8.56269 1410 ft 0 kts 317°
2026-04-26 21:26 47.46265 8.56260 1411 ft 7 kts 317°
2026-04-26 21:26 47.46425 8.56043 1407 ft 56 kts 317°
2026-04-26 21:26 47.46827 8.55494 1411 ft 100 kts 317°
2026-04-26 21:27 47.47446 8.54648 1411 ft 141 kts 317°
2026-04-26 21:27 47.48256 8.53556 1513 ft 168 kts 318°
2026-04-26 21:27 47.49162 8.52302 1866 ft 188 kts 317°
2026-04-26 21:27 47.50228 8.51071 2443 ft 197 kts 333°
2026-04-26 21:28 47.51441 8.50086 3018 ft 202 kts 333°
2026-04-26 21:28 47.52631 8.48980 3559 ft 209 kts 328°
2026-04-26 21:28 47.53470 8.47164 4054 ft 221 kts 284°
2026-04-26 21:28 47.53594 8.44907 4712 ft 220 kts 269°
2026-04-26 21:29 47.53397 8.42632 5311 ft 233 kts 256°
2026-04-26 21:29 47.52780 8.40341 5950 ft 248 kts 235°
2026-04-26 21:29 47.51498 8.38569 6458 ft 263 kts 205°
2026-04-26 21:29 47.49719 8.37764 6825 ft 273 kts 191°
2026-04-26 21:30 47.47839 8.37258 7383 ft 276 kts 190°
2026-04-26 21:30 47.45938 8.36744 7962 ft 279 kts 191°
2026-04-26 21:30 47.44017 8.36186 8541 ft 283 kts 192°
2026-04-26 21:30 47.42138 8.35309 9123 ft 285 kts 207°
2026-04-26 21:31 47.40508 8.33658 9732 ft 285 kts 224°
2026-04-26 21:31 47.39145 8.31520 10321 ft 287 kts 232°
2026-04-26 21:31 47.37941 8.29168 10863 ft 288 kts 237°
2026-04-26 21:31 47.36818 8.26694 11398 ft 290 kts 239°
2026-04-26 21:32 47.35741 8.24208 11933 ft 293 kts 239°
2026-04-26 21:32 47.34644 8.21668 12462 ft 295 kts 239°
2026-04-26 21:32 47.33526 8.19119 13012 ft 297 kts 238°
2026-04-26 21:32 47.32387 8.16572 13555 ft 299 kts 238°
2026-04-26 21:33 47.31226 8.14016 14084 ft 301 kts 238°
2026-04-26 21:33 47.30052 8.11457 14525 ft 303 kts 238°
2026-04-26 21:33 47.28853 8.08859 14916 ft 310 kts 238°
2026-04-26 21:33 47.27625 8.06203 15207 ft 318 kts 238°
2026-04-26 21:34 47.26363 8.03478 15543 ft 324 kts 238°
2026-04-26 21:34 47.25079 8.00705 15897 ft 331 kts 238°
2026-04-26 21:34 47.23782 7.97907 16260 ft 337 kts 238°
2026-04-26 21:34 47.22448 7.95029 16627 ft 344 kts 238°
2026-04-26 21:35 47.21089 7.92101 16973 ft 349 kts 238°
2026-04-26 21:35 47.19706 7.89124 17360 ft 355 kts 238°
2026-04-26 21:35 47.18302 7.86103 17733 ft 361 kts 238°
2026-04-26 21:35 47.16875 7.83036 18105 ft 366 kts 238°
2026-04-26 21:36 47.15426 7.79926 18482 ft 372 kts 238°
2026-04-26 21:36 47.13955 7.76773 18811 ft 376 kts 238°
2026-04-26 21:36 47.12465 7.73587 19141 ft 381 kts 238°
2026-04-26 21:36 47.10956 7.70362 19477 ft 385 kts 238°
2026-04-26 21:37 47.09424 7.67092 19749 ft 391 kts 238°
2026-04-26 21:37 47.07878 7.63797 20191 ft 392 kts 238°
2026-04-26 21:37 47.06330 7.60502 20630 ft 393 kts 238°
2026-04-26 21:37 47.04774 7.57193 21044 ft 394 kts 238°
2026-04-26 21:38 47.03213 7.53876 21422 ft 396 kts 238°
2026-04-26 21:38 47.01643 7.50542 21828 ft 398 kts 238°
2026-04-26 21:38 47.00062 7.47190 22194 ft 400 kts 238°
2026-04-26 21:38 46.98500 7.43881 22556 ft 401 kts 238°
2026-04-26 21:39 46.96909 7.40516 22924 ft 403 kts 238°
2026-04-26 21:39 46.95304 7.37125 23283 ft 405 kts 238°
2026-04-26 21:39 46.93695 7.33729 23598 ft 408 kts 237°
2026-04-26 21:39 46.92076 7.30318 23929 ft 409 kts 237°
2026-04-26 21:40 46.90440 7.26874 24203 ft 412 kts 237°
2026-04-26 21:40 46.88801 7.23431 24469 ft 414 kts 237°
2026-04-26 21:40 46.87147 7.19958 24736 ft 417 kts 238°
2026-04-26 21:40 46.85485 7.16473 24996 ft 419 kts 237°
2026-04-26 21:41 46.83815 7.12974 25288 ft 421 kts 238°
2026-04-26 21:41 46.82134 7.09455 25565 ft 424 kts 238°
2026-04-26 21:41 46.80447 7.05932 25957 ft 421 kts 238°
2026-04-26 21:41 46.78775 7.02448 26374 ft 419 kts 238°
2026-04-26 21:42 46.77102 6.98963 26749 ft 418 kts 238°
2026-04-26 21:42 46.75434 6.95493 27059 ft 418 kts 237°
2026-04-26 21:42 46.73760 6.92013 27338 ft 419 kts 237°
2026-04-26 21:42 46.72104 6.88576 27647 ft 419 kts 237°
2026-04-26 21:43 46.70404 6.85050 27955 ft 419 kts 237°
2026-04-26 21:43 46.68748 6.81620 28261 ft 419 kts 237°
2026-04-26 21:43 46.67070 6.78151 28533 ft 419 kts 237°
2026-04-26 21:43 46.65433 6.74632 28820 ft 418 kts 240°
2026-04-26 21:44 46.63884 6.71053 29116 ft 418 kts 241°
2026-04-26 21:44 46.62335 6.67469 29408 ft 418 kts 240°
2026-04-26 21:44 46.60788 6.63895 29679 ft 418 kts 241°
2026-04-26 21:44 46.59234 6.60313 29973 ft 418 kts 241°
2026-04-26 21:45 46.57682 6.56738 30255 ft 418 kts 241°
2026-04-26 21:45 46.56128 6.53162 30491 ft 418 kts 241°
2026-04-26 21:45 46.54578 6.49601 30742 ft 417 kts 241°
2026-04-26 21:45 46.53029 6.46044 30960 ft 416 kts 241°
2026-04-26 21:46 46.51483 6.42500 31208 ft 415 kts 241°
2026-04-26 21:46 46.49955 6.39002 31439 ft 415 kts 241°
2026-04-26 21:46 46.48412 6.35471 31667 ft 414 kts 241°
2026-04-26 21:46 46.46870 6.31949 31877 ft 413 kts 241°
2026-04-26 21:47 46.45328 6.28431 32078 ft 413 kts 241°
2026-04-26 21:47 46.43784 6.24913 32277 ft 413 kts 241°
2026-04-26 21:47 46.42244 6.21407 32472 ft 412 kts 241°
2026-04-26 21:47 46.40704 6.17907 32669 ft 412 kts 241°
2026-04-26 21:48 46.39161 6.14403 32830 ft 412 kts 240°
2026-04-26 21:48 46.37612 6.10891 32985 ft 413 kts 240°
2026-04-26 21:48 46.36066 6.07389 33162 ft 413 kts 240°
2026-04-26 21:48 46.34520 6.03894 33313 ft 412 kts 240°
2026-04-26 21:49 46.32971 6.00395 33493 ft 412 kts 240°
2026-04-26 21:49 46.31448 5.96959 33706 ft 410 kts 240°
2026-04-26 21:49 46.29909 5.93491 33900 ft 410 kts 240°
2026-04-26 21:49 46.28365 5.90018 34049 ft 410 kts 240°
2026-04-26 21:50 46.26826 5.86561 34203 ft 409 kts 240°
2026-04-26 21:50 46.25783 5.84220 34295 ft 409 kts 240°
2026-04-26 21:50 46.23743 5.79646 34469 ft 408 kts 240°
2026-04-26 21:50 46.22208 5.76209 34592 ft 408 kts 240°
2026-04-26 21:51 46.19126 5.69321 34789 ft 408 kts 240°
2026-04-26 21:51 46.16029 5.62414 34893 ft 411 kts 240°
2026-04-26 21:52 46.12903 5.55459 34967 ft 415 kts 240°
2026-04-26 21:52 46.09767 5.48503 35064 ft 418 kts 240°
2026-04-26 21:53 46.06578 5.41445 35166 ft 422 kts 240°
2026-04-26 21:53 46.03359 5.34339 35258 ft 426 kts 239°
2026-04-26 21:54 46.00100 5.27164 35316 ft 430 kts 239°
2026-04-26 21:54 45.96804 5.19927 35421 ft 434 kts 239°
2026-04-26 21:55 45.93481 5.12648 35528 ft 438 kts 239°
2026-04-26 21:55 45.90146 5.05363 35629 ft 441 kts 239°
2026-04-26 21:56 45.86758 4.97979 35721 ft 445 kts 239°
2026-04-26 21:56 45.83329 4.90527 35798 ft 449 kts 239°
2026-04-26 21:57 45.79864 4.83015 35907 ft 453 kts 239°
2026-04-26 21:57 45.76365 4.75452 35993 ft 457 kts 239°
2026-04-26 21:58 45.72830 4.67831 36110 ft 461 kts 239°
2026-04-26 21:58 45.69262 4.60160 36258 ft 464 kts 239°
2026-04-26 21:59 45.65662 4.52442 36341 ft 468 kts 239°
2026-04-26 21:59 45.62032 4.44679 36432 ft 472 kts 239°
2026-04-26 22:00 45.58363 4.36854 36539 ft 475 kts 239°
2026-04-26 22:00 45.54674 4.29013 36777 ft 475 kts 239°
2026-04-26 22:01 45.52860 4.25167 37010 ft 472 kts 238°
2026-04-26 22:01 45.51032 4.21296 37200 ft 470 kts 238°
2026-04-26 22:01 45.49207 4.17433 37348 ft 469 kts 238°
2026-04-26 22:01 45.47378 4.13566 37428 ft 470 kts 238°
2026-04-26 22:02 45.45551 4.09710 37531 ft 470 kts 238°
2026-04-26 22:02 45.44340 4.07156 37613 ft 470 kts 238°
2026-04-26 22:02 45.41894 4.02005 37779 ft 469 kts 238°
2026-04-26 22:02 45.40066 3.98161 37899 ft 468 kts 238°
2026-04-26 22:03 45.38241 3.94330 38019 ft 468 kts 238°
2026-04-26 22:03 45.36414 3.90500 38147 ft 467 kts 238°
2026-04-26 22:03 45.32756 3.82845 38199 ft 468 kts 238°
2026-04-26 22:04 45.29101 3.75220 38203 ft 467 kts 238°
2026-04-26 22:04 45.25438 3.67596 38198 ft 467 kts 238°
2026-04-26 22:05 45.21792 3.60029 38195 ft 467 kts 238°
2026-04-26 22:05 45.18118 3.52424 38196 ft 467 kts 238°
2026-04-26 22:06 45.14441 3.44834 38199 ft 467 kts 238°
2026-04-26 22:06 45.10749 3.37231 38202 ft 470 kts 238°
2026-04-26 22:07 45.07029 3.29588 38201 ft 473 kts 238°
2026-04-26 22:07 45.03907 3.23191 38201 ft 476 kts 238°
2026-04-26 22:08 44.99485 3.14159 38203 ft 478 kts 238°
2026-04-26 22:08 44.95694 3.06441 38207 ft 478 kts 238°
2026-04-26 22:09 44.91907 2.98749 38210 ft 477 kts 237°
2026-04-26 22:09 44.88759 2.92368 38208 ft 477 kts 237°
2026-04-26 22:10 44.84962 2.84691 38202 ft 477 kts 237°
2026-04-26 22:10 44.81155 2.77016 38197 ft 477 kts 237°
2026-04-26 22:11 44.77372 2.69409 38189 ft 477 kts 237°
2026-04-26 22:11 44.73568 2.61776 38187 ft 476 kts 237°
2026-04-26 22:12 44.69764 2.54168 38187 ft 475 kts 237°
2026-04-26 22:12 44.65956 2.46572 38187 ft 475 kts 237°
2026-04-26 22:13 44.62145 2.38991 38183 ft 475 kts 237°
2026-04-26 22:13 44.58332 2.31425 38177 ft 475 kts 237°
2026-04-26 22:14 44.54507 2.23854 38182 ft 476 kts 237°
2026-04-26 22:14 44.50703 2.16344 38180 ft 475 kts 237°
2026-04-26 22:15 44.46866 2.08789 38170 ft 475 kts 237°
2026-04-26 22:15 44.43029 2.01254 38168 ft 475 kts 237°
2026-04-26 22:16 44.39186 1.93725 38155 ft 476 kts 236°
2026-04-26 22:16 44.35324 1.86180 38158 ft 476 kts 236°
2026-04-26 22:17 44.31470 1.78671 38150 ft 475 kts 236°
2026-04-26 22:17 44.27397 1.71396 38151 ft 477 kts 231°
2026-04-26 22:18 44.22942 1.64604 38145 ft 477 kts 229°
2026-04-26 22:18 44.18386 1.57862 38145 ft 478 kts 229°
2026-04-26 22:19 44.13827 1.51049 38161 ft 478 kts 229°
2026-04-26 22:19 44.09355 1.44312 38161 ft 476 kts 229°
2026-04-26 22:20 44.04863 1.37539 38141 ft 476 kts 229°
2026-04-26 22:20 44.00370 1.30781 38138 ft 477 kts 229°
2026-04-26 22:21 43.95853 1.24006 38154 ft 478 kts 229°
2026-04-26 22:21 43.91336 1.17250 38159 ft 478 kts 229°
2026-04-26 22:22 43.86807 1.10492 38136 ft 477 kts 229°
2026-04-26 22:22 43.82318 1.03811 38137 ft 476 kts 229°
2026-04-26 22:23 43.77791 0.97087 38154 ft 478 kts 229°
2026-04-26 22:23 43.73251 0.90360 38161 ft 479 kts 229°
2026-04-26 22:24 43.68700 0.83635 38160 ft 478 kts 229°
2026-04-26 22:24 43.64147 0.76922 38155 ft 478 kts 229°
2026-04-26 22:25 43.59593 0.70224 38160 ft 479 kts 228°
2026-04-26 22:25 43.55022 0.63514 38159 ft 480 kts 228°
2026-04-26 22:26 43.50448 0.56818 38169 ft 480 kts 228°
2026-04-26 22:26 43.45901 0.50177 38168 ft 480 kts 228°
2026-04-26 22:27 43.41318 0.43500 38169 ft 480 kts 228°
2026-04-26 22:27 43.36714 0.36806 38167 ft 482 kts 228°
2026-04-26 22:28 43.32103 0.30119 38174 ft 482 kts 228°
2026-04-26 22:28 43.27490 0.23445 38176 ft 482 kts 228°
2026-04-26 22:29 43.22878 0.16788 38185 ft 482 kts 228°
2026-04-26 22:29 43.18255 0.10130 38185 ft 483 kts 227°
2026-04-26 22:30 43.13616 0.03466 38191 ft 483 kts 227°
2026-04-26 22:30 43.08975 -0.03186 38183 ft 482 kts 227°
2026-04-26 22:31 43.04344 -0.09807 38183 ft 481 kts 227°
2026-04-26 22:31 42.99712 -0.16415 38190 ft 481 kts 227°
2026-04-26 22:32 42.95072 -0.23020 38193 ft 482 kts 227°
2026-04-26 22:32 42.90449 -0.29583 38201 ft 483 kts 227°
2026-04-26 22:33 42.83459 -0.39482 38194 ft 482 kts 227°
2026-04-26 22:34 42.78397 -0.45405 38196 ft 483 kts 208°
2026-04-26 22:34 42.72171 -0.48859 38189 ft 485 kts 199°
2026-04-26 22:35 42.65753 -0.51732 38190 ft 486 kts 199°
2026-04-26 22:35 42.59374 -0.54804 38181 ft 486 kts 201°
2026-04-26 22:36 42.53047 -0.58060 38184 ft 486 kts 201°
2026-04-26 22:36 42.46780 -0.61350 38173 ft 486 kts 202°
2026-04-26 22:37 42.40475 -0.64655 38165 ft 486 kts 201°
2026-04-26 22:37 42.34154 -0.67951 38157 ft 487 kts 201°
2026-04-26 22:38 42.27819 -0.71242 38151 ft 488 kts 201°
2026-04-26 22:38 42.21483 -0.74524 38152 ft 487 kts 201°
2026-04-26 22:39 42.15151 -0.77797 38144 ft 488 kts 201°
2026-04-26 22:39 42.08801 -0.81074 38132 ft 488 kts 201°
2026-04-26 22:40 42.02497 -0.84320 38128 ft 488 kts 201°
2026-04-26 22:40 41.96155 -0.87578 38128 ft 488 kts 201°
2026-04-26 22:41 41.89809 -0.90831 38123 ft 488 kts 201°
2026-04-26 22:41 41.83466 -0.94076 38118 ft 488 kts 201°
2026-04-26 22:42 41.77110 -0.97321 38120 ft 488 kts 201°
2026-04-26 22:42 41.70763 -1.00554 38121 ft 488 kts 201°
2026-04-26 22:43 41.64551 -1.04185 38119 ft 486 kts 215°
2026-04-26 22:43 41.59375 -1.09962 38126 ft 485 kts 225°
2026-04-26 22:44 41.54583 -1.16240 38132 ft 485 kts 225°
2026-04-26 22:44 41.49705 -1.22438 38139 ft 484 kts 224°
2026-04-26 22:45 41.44734 -1.28491 38141 ft 483 kts 223°
2026-04-26 22:45 41.39725 -1.34485 38139 ft 483 kts 223°
2026-04-26 22:46 41.34712 -1.40462 38149 ft 483 kts 223°
2026-04-26 22:46 41.29702 -1.46432 38158 ft 484 kts 223°
2026-04-26 22:47 41.24686 -1.52404 38161 ft 484 kts 223°
2026-04-26 22:47 41.19694 -1.58337 38163 ft 484 kts 223°
2026-04-26 22:48 41.14663 -1.64303 38166 ft 484 kts 223°
2026-04-26 22:48 41.09638 -1.70247 38168 ft 484 kts 223°
2026-04-26 22:49 41.04603 -1.76192 38177 ft 484 kts 223°
2026-04-26 22:49 40.99600 -1.82084 38180 ft 484 kts 223°
2026-04-26 22:50 40.94558 -1.88009 38183 ft 484 kts 223°
2026-04-26 22:50 40.89522 -1.93913 38188 ft 484 kts 223°
2026-04-26 22:51 40.84467 -1.99828 38185 ft 485 kts 223°
2026-04-26 22:51 40.79411 -2.05731 38185 ft 485 kts 223°
2026-04-26 22:52 40.74343 -2.11637 38192 ft 486 kts 223°
2026-04-26 22:52 40.69275 -2.17525 38179 ft 485 kts 223°
2026-04-26 22:53 40.64229 -2.23366 38178 ft 485 kts 223°
2026-04-26 22:53 40.59155 -2.29226 38165 ft 485 kts 223°
2026-04-26 22:54 40.54077 -2.35081 38170 ft 485 kts 222°
2026-04-26 22:54 40.48996 -2.40926 38170 ft 485 kts 222°
2026-04-26 22:55 40.43915 -2.46760 38169 ft 485 kts 223°
2026-04-26 22:55 40.38820 -2.52598 38168 ft 485 kts 223°
2026-04-26 22:56 40.34113 -2.58903 38169 ft 484 kts 231°
2026-04-26 22:56 40.29839 -2.65728 38165 ft 483 kts 233°
2026-04-26 22:57 40.25649 -2.72536 38158 ft 483 kts 232°
2026-04-26 22:57 40.21386 -2.79316 38159 ft 482 kts 232°
2026-04-26 22:58 40.17808 -2.84926 38155 ft 483 kts 232°
2026-04-26 22:58 40.13481 -2.91675 38176 ft 483 kts 231°
2026-04-26 22:59 40.09162 -2.98396 38152 ft 483 kts 231°
2026-04-26 22:59 40.04840 -3.05111 38174 ft 483 kts 231°
2026-04-26 23:00 40.00547 -3.11771 38166 ft 481 kts 231°
2026-04-26 23:00 39.96231 -3.18451 38162 ft 481 kts 231°
2026-04-26 23:01 39.91913 -3.25120 38158 ft 482 kts 231°
2026-04-26 23:01 39.87588 -3.31785 38154 ft 482 kts 232°
2026-04-26 23:02 39.83257 -3.38447 38149 ft 482 kts 231°
2026-04-26 23:02 39.78924 -3.45096 38148 ft 481 kts 231°
2026-04-26 23:03 39.74388 -3.51485 38143 ft 481 kts 227°
2026-04-26 23:03 39.69688 -3.57592 38152 ft 481 kts 226°
2026-04-26 23:04 39.64942 -3.63722 38152 ft 481 kts 226°
2026-04-26 23:04 39.60216 -3.69880 38148 ft 481 kts 226°
2026-04-26 23:05 39.55506 -3.76043 38148 ft 481 kts 226°
2026-04-26 23:05 39.50789 -3.82211 38137 ft 481 kts 226°
2026-04-26 23:06 39.46080 -3.88355 38143 ft 480 kts 226°
2026-04-26 23:06 39.41370 -3.94486 38143 ft 480 kts 226°
2026-04-26 23:07 39.36682 -4.00575 38143 ft 480 kts 226°
2026-04-26 23:07 39.31961 -4.06694 38143 ft 480 kts 226°
2026-04-26 23:08 39.27245 -4.12795 38130 ft 480 kts 226°
2026-04-26 23:08 39.22521 -4.18894 38135 ft 480 kts 226°
2026-04-26 23:09 39.17791 -4.24989 38135 ft 480 kts 226°
2026-04-26 23:09 39.13087 -4.31036 38126 ft 480 kts 226°
2026-04-26 23:10 39.08351 -4.37114 38127 ft 480 kts 226°
2026-04-26 23:10 39.03616 -4.43178 38108 ft 480 kts 226°
2026-04-26 23:11 38.98874 -4.49239 38118 ft 480 kts 226°
2026-04-26 23:11 38.94161 -4.55250 38119 ft 480 kts 226°
2026-04-26 23:12 38.89420 -4.61283 38110 ft 480 kts 226°
2026-04-26 23:12 38.84681 -4.67301 38111 ft 479 kts 226°
2026-04-26 23:13 38.79939 -4.73310 38102 ft 479 kts 226°
2026-04-26 23:13 38.75189 -4.79319 38101 ft 479 kts 226°
2026-04-26 23:14 38.70447 -4.85304 38102 ft 479 kts 226°
2026-04-26 23:14 38.65730 -4.91246 38088 ft 479 kts 226°
2026-04-26 23:15 38.60954 -4.97252 38091 ft 478 kts 226°
2026-04-26 23:15 38.56214 -5.03199 38082 ft 477 kts 226°
2026-04-26 23:16 38.51462 -5.09118 38077 ft 477 kts 223°
2026-04-26 23:16 38.48813 -5.11581 38082 ft 478 kts 212°
2026-04-26 23:16 38.45895 -5.13621 38081 ft 479 kts 208°
2026-04-26 23:17 38.39820 -5.17170 38085 ft 481 kts 205°
2026-04-26 23:17 38.33721 -5.20679 38080 ft 481 kts 206°
2026-04-26 23:18 38.27669 -5.24326 38080 ft 480 kts 207°
2026-04-26 23:18 38.21655 -5.28037 38080 ft 480 kts 207°
2026-04-26 23:19 38.15683 -5.31736 38080 ft 480 kts 207°
2026-04-26 23:19 38.09674 -5.35446 38077 ft 480 kts 207°
2026-04-26 23:20 38.03669 -5.39140 38077 ft 479 kts 207°
2026-04-26 23:20 37.97669 -5.42822 38077 ft 478 kts 207°
2026-04-26 23:21 37.91670 -5.46497 38075 ft 478 kts 207°
2026-04-26 23:21 37.85679 -5.50161 38073 ft 478 kts 207°
2026-04-26 23:22 37.79681 -5.53823 38071 ft 478 kts 207°
2026-04-26 23:22 37.73686 -5.57476 38067 ft 478 kts 207°
2026-04-26 23:23 37.67700 -5.61116 38061 ft 478 kts 207°
2026-04-26 23:23 37.61707 -5.64755 38055 ft 477 kts 207°
2026-04-26 23:24 37.55756 -5.68362 38048 ft 477 kts 207°
2026-04-26 23:24 37.49768 -5.71985 38050 ft 477 kts 207°
2026-04-26 23:25 37.43796 -5.75606 38045 ft 475 kts 210°
2026-04-26 23:25 37.38406 -5.80314 38048 ft 471 kts 221°
2026-04-26 23:26 37.33482 -5.85755 38051 ft 471 kts 223°
2026-04-26 23:26 37.28579 -5.91226 38047 ft 471 kts 223°
2026-04-26 23:27 37.23617 -5.96590 38039 ft 471 kts 222°
2026-04-26 23:27 37.18608 -6.01903 38039 ft 471 kts 221°
2026-04-26 23:28 37.13632 -6.07152 38040 ft 471 kts 221°
2026-04-26 23:28 37.08621 -6.12434 38040 ft 470 kts 221°
2026-04-26 23:29 37.03615 -6.17706 38039 ft 469 kts 221°
2026-04-26 23:29 36.98629 -6.22949 38042 ft 468 kts 221°
2026-04-26 23:30 36.93633 -6.28195 38043 ft 468 kts 221°
2026-04-26 23:30 36.88642 -6.33428 38044 ft 468 kts 221°
2026-04-26 23:31 36.83642 -6.38662 38044 ft 468 kts 221°
2026-04-26 23:31 36.78645 -6.43883 38047 ft 468 kts 221°
2026-04-26 23:32 36.73684 -6.49058 38047 ft 466 kts 220°
2026-04-26 23:32 36.68709 -6.54238 38046 ft 466 kts 221°
2026-04-26 23:33 36.63727 -6.59416 38033 ft 466 kts 220°
2026-04-26 23:33 36.58749 -6.64582 38030 ft 466 kts 220°
2026-04-26 23:34 36.53778 -6.69730 38026 ft 462 kts 220°
2026-04-26 23:34 36.48835 -6.74841 38027 ft 461 kts 220°
2026-04-26 23:35 36.43897 -6.79938 38021 ft 461 kts 220°
2026-04-26 23:35 36.39000 -6.84985 38030 ft 460 kts 220°
2026-04-26 23:36 36.34078 -6.90049 38011 ft 460 kts 220°
2026-04-26 23:36 36.29150 -6.95111 38005 ft 458 kts 220°
2026-04-26 23:37 36.24250 -7.00134 38009 ft 454 kts 220°
2026-04-26 23:37 36.19365 -7.05134 38007 ft 456 kts 219°
2026-04-26 23:38 36.14478 -7.10128 38002 ft 457 kts 220°
2026-04-26 23:38 36.09613 -7.15091 37999 ft 456 kts 219°
2026-04-26 23:39 36.04718 -7.20076 38003 ft 454 kts 219°
2026-04-26 23:39 35.99820 -7.25059 37995 ft 456 kts 219°
2026-04-26 23:40 35.94904 -7.30048 37995 ft 457 kts 219°
2026-04-26 23:40 35.89995 -7.35022 37994 ft 457 kts 219°
2026-04-26 23:41 35.85078 -7.39996 37991 ft 456 kts 219°
2026-04-26 23:41 35.80195 -7.44928 37993 ft 456 kts 219°
2026-04-26 23:42 35.75284 -7.49880 37997 ft 457 kts 219°
2026-04-26 23:42 35.67895 -7.57315 37985 ft 456 kts 219°
2026-04-26 23:43 35.62974 -7.62257 37993 ft 458 kts 219°
2026-04-26 23:43 35.58026 -7.67217 37977 ft 460 kts 219°
2026-04-26 23:44 35.53067 -7.72181 37980 ft 459 kts 219°
2026-04-26 23:44 35.48102 -7.77143 37973 ft 459 kts 219°
2026-04-26 23:45 35.43977 -7.81259 37971 ft 460 kts 219°
2026-04-26 23:45 35.38213 -7.87000 37967 ft 460 kts 219°
2026-04-26 23:46 35.33245 -7.91939 37974 ft 460 kts 219°
2026-04-26 23:46 35.28278 -7.96871 37969 ft 459 kts 219°
2026-04-26 23:47 35.23303 -8.01802 37965 ft 460 kts 219°
2026-04-26 23:47 35.19164 -8.05898 37976 ft 461 kts 219°
2026-04-26 23:48 35.13355 -8.11637 37965 ft 461 kts 219°
2026-04-26 23:48 35.09170 -8.15766 37965 ft 461 kts 219°
2026-04-26 23:49 35.04199 -8.20663 37967 ft 461 kts 219°
2026-04-26 23:49 34.99208 -8.25570 37965 ft 461 kts 219°
2026-04-26 23:50 34.94201 -8.30486 37957 ft 461 kts 219°
2026-04-26 23:50 34.89197 -8.35391 37977 ft 461 kts 218°
2026-04-26 23:51 34.84193 -8.40288 37968 ft 460 kts 218°
2026-04-26 23:51 34.79234 -8.45134 37968 ft 460 kts 218°
2026-04-26 23:52 34.74242 -8.50003 37970 ft 460 kts 218°
2026-04-26 23:52 34.69246 -8.54870 37970 ft 460 kts 218°
2026-04-26 23:53 34.64240 -8.59738 37967 ft 460 kts 218°
2026-04-26 23:53 34.59240 -8.64591 37969 ft 460 kts 218°
2026-04-26 23:54 34.54232 -8.69446 37969 ft 460 kts 218°
2026-04-26 23:54 34.49259 -8.74259 37970 ft 460 kts 218°
2026-04-26 23:55 34.44254 -8.79095 37966 ft 459 kts 218°
2026-04-26 23:55 34.39242 -8.83922 37969 ft 459 kts 218°
2026-04-26 23:56 34.34231 -8.88738 37967 ft 459 kts 218°
2026-04-26 23:56 34.29222 -8.93544 37960 ft 459 kts 218°
2026-04-26 23:57 34.24210 -8.98346 37972 ft 459 kts 218°
2026-04-26 23:57 34.19203 -9.03136 37963 ft 459 kts 218°
2026-04-26 23:58 34.14190 -9.07925 37967 ft 459 kts 218°
2026-04-26 23:58 34.09209 -9.12676 37976 ft 459 kts 218°
2026-04-26 23:59 34.04199 -9.17447 37973 ft 458 kts 218°
2026-04-26 23:59 33.99184 -9.22214 37973 ft 458 kts 218°
2026-04-27 00:00 33.94171 -9.26973 37973 ft 458 kts 218°
2026-04-27 00:00 33.89193 -9.31692 37976 ft 458 kts 218°
2026-04-27 00:01 33.84188 -9.36429 37968 ft 458 kts 218°
2026-04-27 00:01 33.79183 -9.41158 37976 ft 457 kts 218°
2026-04-27 00:02 33.74179 -9.45880 37972 ft 457 kts 218°
2026-04-27 00:02 33.69169 -9.50600 37970 ft 457 kts 218°
2026-04-27 00:03 33.64157 -9.55315 37975 ft 458 kts 218°
2026-04-27 00:03 33.59144 -9.60023 37970 ft 457 kts 218°
2026-04-27 00:04 33.54133 -9.64722 37973 ft 457 kts 217°
2026-04-27 00:04 33.49125 -9.69412 37979 ft 457 kts 217°
2026-04-27 00:05 33.44147 -9.74067 37977 ft 457 kts 217°
2026-04-27 00:05 33.39138 -9.78743 37974 ft 457 kts 217°
2026-04-27 00:06 33.34118 -9.83422 37988 ft 457 kts 217°
2026-04-27 00:06 33.29098 -9.88095 37970 ft 457 kts 217°
2026-04-27 00:07 33.24099 -9.92741 37972 ft 457 kts 217°
2026-04-27 00:07 33.19077 -9.97401 37972 ft 457 kts 217°
2026-04-27 00:08 33.14057 -10.02053 37977 ft 457 kts 217°
2026-04-27 00:08 33.09035 -10.06699 37978 ft 457 kts 217°
2026-04-27 00:09 33.04006 -10.11345 37971 ft 457 kts 217°
2026-04-27 00:09 32.98971 -10.15989 37974 ft 457 kts 217°
2026-04-27 00:10 32.93943 -10.20613 37978 ft 457 kts 217°
2026-04-27 00:10 32.88912 -10.25233 37970 ft 457 kts 217°
2026-04-27 00:11 32.83869 -10.29858 37961 ft 458 kts 217°
2026-04-27 00:11 32.78856 -10.34449 37973 ft 458 kts 217°
2026-04-27 00:12 32.73808 -10.39065 37970 ft 458 kts 217°
2026-04-27 00:12 32.68755 -10.43679 37969 ft 458 kts 217°
2026-04-27 00:13 32.63703 -10.48285 37969 ft 458 kts 217°
2026-04-27 00:13 32.58656 -10.52880 37961 ft 458 kts 217°
2026-04-27 00:14 32.53600 -10.57476 37981 ft 458 kts 217°
2026-04-27 00:14 32.48571 -10.62042 37968 ft 458 kts 217°
2026-04-27 00:15 32.43496 -10.66643 37945 ft 459 kts 217°
2026-04-27 00:15 32.38429 -10.71229 37960 ft 458 kts 217°
2026-04-27 00:16 32.33368 -10.75803 37961 ft 458 kts 217°
2026-04-27 00:16 32.28303 -10.80375 37961 ft 458 kts 217°
2026-04-27 00:17 32.23236 -10.84941 37955 ft 458 kts 217°
2026-04-27 00:17 32.18203 -10.89471 37957 ft 458 kts 217°
2026-04-27 00:18 32.13132 -10.94028 37954 ft 458 kts 217°
2026-04-27 00:18 32.08058 -10.98581 37950 ft 458 kts 217°
2026-04-27 00:19 32.02980 -11.03132 37966 ft 459 kts 217°
2026-04-27 00:19 31.97898 -11.07680 37967 ft 459 kts 217°
2026-04-27 00:20 31.92806 -11.12230 37956 ft 459 kts 217°
2026-04-27 00:20 31.87717 -11.16770 37968 ft 459 kts 217°
2026-04-27 00:21 31.82625 -11.21307 37962 ft 459 kts 217°
2026-04-27 00:21 31.77576 -11.25800 37961 ft 458 kts 217°
2026-04-27 00:22 31.72493 -11.30325 37957 ft 458 kts 217°
2026-04-27 00:22 31.67411 -11.34857 37961 ft 459 kts 217°
2026-04-27 00:23 31.62315 -11.39397 37960 ft 460 kts 217°
2026-04-27 00:23 31.57215 -11.43934 37960 ft 460 kts 217°
2026-04-27 00:24 31.52118 -11.48459 37963 ft 459 kts 217°
2026-04-27 00:24 31.47025 -11.52976 37954 ft 459 kts 217°
2026-04-27 00:25 31.41925 -11.57491 37954 ft 459 kts 217°
2026-04-27 00:25 31.36826 -11.62000 37966 ft 459 kts 217°
2026-04-27 00:26 31.31757 -11.66476 37953 ft 459 kts 217°
2026-04-27 00:26 31.26654 -11.70976 37965 ft 459 kts 217°
2026-04-27 00:27 31.21559 -11.75462 37967 ft 458 kts 217°
2026-04-27 00:27 31.16466 -11.79941 37963 ft 458 kts 217°
2026-04-27 00:28 31.11367 -11.84418 37959 ft 458 kts 217°
2026-04-27 00:28 31.06271 -11.88887 37957 ft 458 kts 217°
2026-04-27 00:29 31.01175 -11.93350 37967 ft 458 kts 217°
2026-04-27 00:29 30.96077 -11.97808 37956 ft 458 kts 217°
2026-04-27 00:30 30.90983 -12.02257 37965 ft 457 kts 217°
2026-04-27 00:30 30.85889 -12.06700 37970 ft 457 kts 216°
2026-04-27 00:31 30.80822 -12.11113 37969 ft 458 kts 216°
2026-04-27 00:31 30.75716 -12.15554 37968 ft 458 kts 216°
2026-04-27 00:32 30.70602 -12.19996 37974 ft 458 kts 216°
2026-04-27 00:32 30.65492 -12.24429 37967 ft 458 kts 216°
2026-04-27 00:33 30.60383 -12.28854 37979 ft 458 kts 216°
2026-04-27 00:33 30.55274 -12.33274 37968 ft 458 kts 216°
2026-04-27 00:34 30.50166 -12.37687 37983 ft 458 kts 216°
2026-04-27 00:34 30.45051 -12.42088 37986 ft 458 kts 216°
2026-04-27 00:35 30.39926 -12.46488 37983 ft 460 kts 216°
2026-04-27 00:35 30.34816 -12.50869 37978 ft 460 kts 216°
2026-04-27 00:36 30.29672 -12.55275 37987 ft 459 kts 216°
2026-04-27 00:36 30.25367 -12.58958 37988 ft 459 kts 216°
2026-04-27 00:37 30.20270 -12.63314 37993 ft 459 kts 216°
2026-04-27 00:37 30.15132 -12.67697 37993 ft 459 kts 216°
2026-04-27 00:38 30.09997 -12.72075 37993 ft 459 kts 216°
2026-04-27 00:38 30.04864 -12.76461 37993 ft 459 kts 216°
2026-04-27 00:39 29.99723 -12.80853 37999 ft 460 kts 216°
2026-04-27 00:39 29.94598 -12.85227 37998 ft 461 kts 216°
2026-04-27 00:40 29.89434 -12.89627 37999 ft 461 kts 216°
2026-04-27 00:40 29.84271 -12.94019 38004 ft 461 kts 216°
2026-04-27 00:41 29.79100 -12.98412 38004 ft 461 kts 216°
2026-04-27 00:41 29.73935 -13.02795 38000 ft 461 kts 216°
2026-04-27 00:42 29.68768 -13.07173 38012 ft 460 kts 216°
2026-04-27 00:42 29.63604 -13.11544 38012 ft 460 kts 216°
2026-04-27 00:43 29.58471 -13.15882 38013 ft 461 kts 216°
2026-04-27 00:43 29.53290 -13.20255 38012 ft 463 kts 216°
2026-04-27 00:44 29.48097 -13.24632 38018 ft 463 kts 216°
2026-04-27 00:44 29.42904 -13.29004 38017 ft 463 kts 216°
2026-04-27 00:45 29.37711 -13.33371 38018 ft 462 kts 216°
2026-04-27 00:45 29.32520 -13.37730 38023 ft 462 kts 216°
2026-04-27 00:46 29.27329 -13.42083 38023 ft 462 kts 216°
2026-04-27 00:46 29.22145 -13.46425 38022 ft 462 kts 216°
2026-04-27 00:47 29.16979 -13.50739 38028 ft 462 kts 215°
2026-04-27 00:47 29.11586 -13.54799 38020 ft 465 kts 212°
2026-04-27 00:48 29.06078 -13.58665 38021 ft 465 kts 212°
2026-04-27 00:48 29.00568 -13.62528 38020 ft 464 kts 212°
2026-04-27 00:49 28.95072 -13.66420 38021 ft 465 kts 212°
2026-04-27 00:49 28.89583 -13.70324 38020 ft 464 kts 212°
2026-04-27 00:50 28.81350 -13.76175 38024 ft 464 kts 212°
2026-04-27 00:51 28.75904 -13.80037 38039 ft 464 kts 212°
2026-04-27 00:51 28.70419 -13.83922 38041 ft 464 kts 212°
2026-04-27 00:52 28.64936 -13.87800 38046 ft 465 kts 212°
2026-04-27 00:52 28.59413 -13.91701 38045 ft 468 kts 212°
2026-04-27 00:53 28.53912 -13.95583 38047 ft 468 kts 212°
2026-04-27 00:53 28.48388 -13.99475 38046 ft 467 kts 212°
2026-04-27 00:54 28.42866 -14.03361 38045 ft 467 kts 212°
2026-04-27 00:54 28.37345 -14.07242 38037 ft 466 kts 212°
2026-04-27 00:55 28.31822 -14.11119 38036 ft 466 kts 212°
2026-04-27 00:55 28.26296 -14.14994 38037 ft 467 kts 212°
2026-04-27 00:56 28.20770 -14.18863 38026 ft 467 kts 213°
2026-04-27 00:56 28.15241 -14.22730 38040 ft 466 kts 213°
2026-04-27 00:57 28.09705 -14.26598 38042 ft 468 kts 213°
2026-04-27 00:57 28.04152 -14.30473 38039 ft 469 kts 213°
2026-04-27 00:58 27.98634 -14.34318 38038 ft 469 kts 213°
2026-04-27 00:58 27.93077 -14.38185 38043 ft 469 kts 213°
2026-04-27 00:59 27.87518 -14.42049 38043 ft 468 kts 213°
2026-04-27 00:59 27.81973 -14.45899 38042 ft 467 kts 213°
2026-04-27 01:00 27.76428 -14.49744 38043 ft 467 kts 213°
2026-04-27 01:00 27.70884 -14.53585 38051 ft 467 kts 213°
2026-04-27 01:01 27.65342 -14.57418 38050 ft 467 kts 213°
2026-04-27 01:01 27.59781 -14.61261 38049 ft 470 kts 213°
2026-04-27 01:02 27.54219 -14.65100 38049 ft 471 kts 214°
2026-04-27 01:02 27.48630 -14.68952 38048 ft 471 kts 214°
2026-04-27 01:03 27.43041 -14.72800 38046 ft 471 kts 214°
2026-04-27 01:03 27.37437 -14.76653 38047 ft 471 kts 214°
2026-04-27 01:04 27.31848 -14.80492 38055 ft 471 kts 214°
2026-04-27 01:04 27.26248 -14.84334 38032 ft 471 kts 214°
2026-04-27 01:05 27.20690 -14.88141 38052 ft 469 kts 214°
2026-04-27 01:05 27.15118 -14.91954 38051 ft 469 kts 214°
2026-04-27 01:06 27.09531 -14.95774 38052 ft 470 kts 215°
2026-04-27 01:06 27.03923 -14.99604 38055 ft 473 kts 215°
2026-04-27 01:07 26.98303 -15.03436 38056 ft 473 kts 215°
2026-04-27 01:07 26.92714 -15.07242 38056 ft 472 kts 215°
2026-04-27 01:08 26.87089 -15.11069 38059 ft 473 kts 215°
2026-04-27 01:08 26.81468 -15.14889 38057 ft 473 kts 215°
2026-04-27 01:09 26.75841 -15.18708 38051 ft 473 kts 215°
2026-04-27 01:09 26.70213 -15.22524 38054 ft 473 kts 215°
2026-04-27 01:10 26.64616 -15.26313 38055 ft 473 kts 215°
2026-04-27 01:10 26.59002 -15.30109 38052 ft 471 kts 215°
2026-04-27 01:11 26.53391 -15.33900 38053 ft 470 kts 215°
2026-04-27 01:11 26.47789 -15.37680 38061 ft 470 kts 215°
2026-04-27 01:12 26.42187 -15.41457 38060 ft 470 kts 215°
2026-04-27 01:12 26.36575 -15.45235 38059 ft 470 kts 215°
2026-04-27 01:13 26.31001 -15.48983 38055 ft 470 kts 216°
2026-04-27 01:13 26.25373 -15.52761 38057 ft 469 kts 216°
2026-04-27 01:14 26.19820 -15.56488 38060 ft 468 kts 216°
2026-04-27 01:14 26.14242 -15.60227 38060 ft 468 kts 216°
2026-04-27 01:15 26.08661 -15.63963 38060 ft 468 kts 216°
2026-04-27 01:15 26.03050 -15.67716 38061 ft 471 kts 216°
2026-04-27 01:16 25.97426 -15.71474 38049 ft 472 kts 217°
2026-04-27 01:16 25.91803 -15.75224 38056 ft 470 kts 217°
2026-04-27 01:17 25.86222 -15.78941 38059 ft 470 kts 217°
2026-04-27 01:17 25.80604 -15.82681 38059 ft 470 kts 217°
2026-04-27 01:18 25.74989 -15.86415 38056 ft 470 kts 217°
2026-04-27 01:18 25.69400 -15.90127 38058 ft 470 kts 217°
2026-04-27 01:19 25.63783 -15.93853 38053 ft 469 kts 217°
2026-04-27 01:19 25.58176 -15.97567 38054 ft 468 kts 217°
2026-04-27 01:20 25.52575 -16.01275 38057 ft 469 kts 218°
2026-04-27 01:20 25.46961 -16.04990 38059 ft 470 kts 218°
2026-04-27 01:21 25.41376 -16.08679 38061 ft 471 kts 218°
2026-04-27 01:21 25.35744 -16.12394 38034 ft 471 kts 218°
2026-04-27 01:22 25.30123 -16.16098 38054 ft 469 kts 218°
2026-04-27 01:22 25.24513 -16.19791 38063 ft 469 kts 218°
2026-04-27 01:23 25.18901 -16.23483 38060 ft 469 kts 218°
2026-04-27 01:23 25.13293 -16.27167 38055 ft 469 kts 218°
2026-04-27 01:24 25.07714 -16.30828 38059 ft 469 kts 218°
2026-04-27 01:24 25.02105 -16.34505 38042 ft 469 kts 218°
2026-04-27 01:25 24.96488 -16.38182 38065 ft 470 kts 218°
2026-04-27 01:25 24.91805 -16.41247 38062 ft 471 kts 218°
2026-04-27 01:26 24.86170 -16.44927 38065 ft 471 kts 218°
2026-04-27 01:26 24.80532 -16.48606 38063 ft 471 kts 218°
2026-04-27 01:27 24.74887 -16.52287 38062 ft 471 kts 218°
2026-04-27 01:27 24.69250 -16.55957 38043 ft 471 kts 219°
2026-04-27 01:28 24.63602 -16.59632 38064 ft 471 kts 219°
2026-04-27 01:28 24.57955 -16.63302 38064 ft 471 kts 219°
2026-04-27 01:29 24.52304 -16.66971 38065 ft 471 kts 219°
2026-04-27 01:29 24.46687 -16.70614 38048 ft 471 kts 219°
2026-04-27 01:30 24.41030 -16.74281 38073 ft 474 kts 219°
2026-04-27 01:30 24.35351 -16.77956 38056 ft 474 kts 219°
2026-04-27 01:31 24.29664 -16.81631 38061 ft 474 kts 219°
2026-04-27 01:31 24.23981 -16.85300 38061 ft 474 kts 219°
2026-04-27 01:32 24.18285 -16.88975 38065 ft 474 kts 219°
2026-04-27 01:32 24.12637 -16.92615 38064 ft 474 kts 219°
2026-04-27 01:33 24.06943 -16.96280 38063 ft 474 kts 219°
2026-04-27 01:33 24.01249 -16.99942 38059 ft 474 kts 219°
2026-04-27 01:34 23.95553 -17.03602 38058 ft 475 kts 219°
2026-04-27 01:34 23.89849 -17.07263 38071 ft 476 kts 219°
2026-04-27 01:35 23.84157 -17.10914 38068 ft 477 kts 219°
2026-04-27 01:35 23.78425 -17.14584 38064 ft 478 kts 219°
2026-04-27 01:36 23.72685 -17.18255 38063 ft 478 kts 219°
2026-04-27 01:36 23.66950 -17.21919 38063 ft 478 kts 219°
2026-04-27 01:37 23.61213 -17.25583 38063 ft 478 kts 219°
2026-04-27 01:37 23.55473 -17.29243 38065 ft 477 kts 219°
2026-04-27 01:38 23.49737 -17.32898 38062 ft 477 kts 219°
2026-04-27 01:38 23.43997 -17.36552 38062 ft 477 kts 219°
2026-04-27 01:39 23.38297 -17.40176 38007 ft 477 kts 219°
2026-04-27 01:39 23.32548 -17.43829 38062 ft 479 kts 219°
2026-04-27 01:40 23.26792 -17.47482 38062 ft 479 kts 219°
2026-04-27 01:40 23.21030 -17.51134 38059 ft 479 kts 219°
2026-04-27 01:41 23.15277 -17.54777 38059 ft 479 kts 219°
2026-04-27 01:41 23.09514 -17.58423 38059 ft 479 kts 219°
2026-04-27 01:42 23.03789 -17.62041 38056 ft 478 kts 219°
2026-04-27 01:42 22.98041 -17.65670 38059 ft 478 kts 219°
2026-04-27 01:43 22.92292 -17.69296 38054 ft 478 kts 219°
2026-04-27 01:43 22.86531 -17.72928 38062 ft 478 kts 219°
2026-04-27 01:44 22.80778 -17.76550 38056 ft 478 kts 219°
2026-04-27 01:44 22.75012 -17.80177 38057 ft 479 kts 219°
2026-04-27 01:45 22.69244 -17.83800 38056 ft 478 kts 219°
2026-04-27 01:45 22.63491 -17.87409 38056 ft 478 kts 219°
2026-04-27 01:46 22.57775 -17.90994 38061 ft 478 kts 219°
2026-04-27 01:46 22.52024 -17.94598 38059 ft 478 kts 219°
2026-04-27 01:47 22.46269 -17.98199 38053 ft 478 kts 219°
2026-04-27 01:47 22.40517 -18.01796 38056 ft 478 kts 219°
2026-04-27 01:48 22.34761 -18.05391 38061 ft 477 kts 219°
2026-04-27 01:48 22.29023 -18.08970 38058 ft 476 kts 219°
2026-04-27 01:49 22.23283 -18.12549 38059 ft 476 kts 219°
2026-04-27 01:49 22.17547 -18.16122 38058 ft 476 kts 219°
2026-04-27 01:50 22.11844 -18.19672 38056 ft 476 kts 219°
2026-04-27 01:50 22.06107 -18.23239 38058 ft 476 kts 219°
2026-04-27 01:51 22.00365 -18.26804 38056 ft 475 kts 219°
2026-04-27 01:51 21.94644 -18.30353 38056 ft 475 kts 219°
2026-04-27 01:52 21.88917 -18.33904 38056 ft 475 kts 219°
2026-04-27 01:52 21.83185 -18.37454 38056 ft 475 kts 219°
2026-04-27 01:53 21.77498 -18.40973 38053 ft 475 kts 219°
2026-04-27 01:53 21.71770 -18.44514 38018 ft 474 kts 219°
2026-04-27 01:54 21.66052 -18.48044 38057 ft 473 kts 219°
2026-04-27 01:54 21.60343 -18.51567 38054 ft 473 kts 219°
2026-04-27 01:55 21.54632 -18.55089 38055 ft 473 kts 219°
2026-04-27 01:55 21.48918 -18.58608 38053 ft 473 kts 219°
2026-04-27 01:56 21.40392 -18.63854 38052 ft 473 kts 219°
2026-04-27 01:56 21.34679 -18.67364 38050 ft 472 kts 219°
2026-04-27 01:57 21.28978 -18.70863 38051 ft 472 kts 219°
2026-04-27 01:57 21.23279 -18.74358 38050 ft 472 kts 219°
2026-04-27 01:58 21.17573 -18.77854 38050 ft 472 kts 219°
2026-04-27 01:58 21.11873 -18.81343 38050 ft 472 kts 219°
2026-04-27 01:59 21.06171 -18.84830 38050 ft 472 kts 219°
2026-04-27 01:59 21.00472 -18.88312 38047 ft 471 kts 219°
2026-04-27 02:00 20.94777 -18.91788 38052 ft 471 kts 219°
2026-04-27 02:00 20.89112 -18.95244 38052 ft 471 kts 219°
2026-04-27 02:01 20.83407 -18.98721 38053 ft 471 kts 219°
2026-04-27 02:01 20.77700 -19.02195 38053 ft 471 kts 219°
2026-04-27 02:02 20.72004 -19.05660 38052 ft 471 kts 219°
2026-04-27 02:02 20.66303 -19.09126 38050 ft 471 kts 219°
2026-04-27 02:03 20.60646 -19.12560 38036 ft 471 kts 219°
2026-04-27 02:03 20.54950 -19.16017 38053 ft 471 kts 219°
2026-04-27 02:04 20.49245 -19.19476 38053 ft 471 kts 219°
2026-04-27 02:04 20.43547 -19.22926 38053 ft 471 kts 219°
2026-04-27 02:05 20.37846 -19.26376 38051 ft 471 kts 219°
2026-04-27 02:05 20.32175 -19.29806 38050 ft 471 kts 219°
2026-04-27 02:06 20.26470 -19.33252 38054 ft 471 kts 219°
2026-04-27 02:06 20.20761 -19.36698 38053 ft 471 kts 219°
2026-04-27 02:07 20.15053 -19.40141 38053 ft 471 kts 219°
2026-04-27 02:07 20.09347 -19.43579 38053 ft 471 kts 219°
2026-04-27 02:08 20.03643 -19.47013 38047 ft 471 kts 219°
2026-04-27 02:08 19.97934 -19.50449 38052 ft 472 kts 219°
2026-04-27 02:09 19.92249 -19.53866 38051 ft 472 kts 219°
2026-04-27 02:09 19.86531 -19.57299 38064 ft 472 kts 219°
2026-04-27 02:10 19.80813 -19.60730 38049 ft 472 kts 219°
2026-04-27 02:10 19.75090 -19.64162 38051 ft 472 kts 219°
2026-04-27 02:11 19.69369 -19.67589 38061 ft 472 kts 219°
2026-04-27 02:11 19.63647 -19.71013 38053 ft 471 kts 218°
2026-04-27 02:12 19.58223 -19.74689 38052 ft 456 kts 230°
2026-04-27 02:12 19.53855 -19.79439 38050 ft 447 kts 237°
2026-04-27 02:13 19.49803 -19.84439 38054 ft 448 kts 237°
2026-04-27 02:13 19.45681 -19.89400 38050 ft 449 kts 236°
2026-04-27 02:14 19.42181 -19.93479 38050 ft 450 kts 236°
2026-04-27 02:14 19.37217 -19.99182 38051 ft 450 kts 235°
2026-04-27 02:15 19.33685 -20.03230 38050 ft 450 kts 235°
2026-04-27 02:15 19.29432 -20.08108 38053 ft 450 kts 235°
2026-04-27 02:16 19.25183 -20.12981 38053 ft 450 kts 235°
2026-04-27 02:16 19.20935 -20.17853 38054 ft 451 kts 235°
2026-04-27 02:17 19.16675 -20.22734 38053 ft 452 kts 235°
2026-04-27 02:17 19.12407 -20.27619 38053 ft 452 kts 235°
2026-04-27 02:18 19.08163 -20.32472 38053 ft 452 kts 235°
2026-04-27 02:18 19.03889 -20.37355 38053 ft 452 kts 235°
2026-04-27 02:19 18.99616 -20.42234 38050 ft 452 kts 235°
2026-04-27 02:19 18.95346 -20.47106 38024 ft 452 kts 234°
2026-04-27 02:20 18.91060 -20.51992 38054 ft 453 kts 234°
2026-04-27 02:20 18.86803 -20.56841 38052 ft 453 kts 234°
2026-04-27 02:21 18.82517 -20.61718 38053 ft 453 kts 234°
2026-04-27 02:21 18.78229 -20.66594 38053 ft 453 kts 234°
2026-04-27 02:22 18.73931 -20.71477 38052 ft 453 kts 234°
2026-04-27 02:22 18.69639 -20.76351 38053 ft 453 kts 234°
2026-04-27 02:23 18.65344 -20.81223 38041 ft 453 kts 234°
2026-04-27 02:23 18.61071 -20.86067 38052 ft 454 kts 234°
2026-04-27 02:24 18.56767 -20.90942 38047 ft 453 kts 234°
2026-04-27 02:24 18.52477 -20.95794 38041 ft 452 kts 234°
2026-04-27 02:25 18.48188 -21.00645 38060 ft 452 kts 234°
2026-04-27 02:25 18.43896 -21.05496 38040 ft 452 kts 234°
2026-04-27 02:26 18.39612 -21.10333 38057 ft 452 kts 234°
2026-04-27 02:26 18.35319 -21.15176 38052 ft 452 kts 234°
2026-04-27 02:27 18.31046 -21.19994 38052 ft 452 kts 234°
2026-04-27 02:27 18.26754 -21.24828 38052 ft 452 kts 234°
2026-04-27 02:28 18.22449 -21.29673 38054 ft 452 kts 234°
2026-04-27 02:28 18.18180 -21.34475 38055 ft 451 kts 234°
2026-04-27 02:29 18.13891 -21.39293 38055 ft 450 kts 234°
2026-04-27 02:29 18.09602 -21.44110 38057 ft 450 kts 234°
2026-04-27 02:30 18.05319 -21.48917 38055 ft 451 kts 234°
2026-04-27 02:30 18.01031 -21.53725 38056 ft 451 kts 234°
2026-04-27 02:31 17.96761 -21.58510 38054 ft 451 kts 234°
2026-04-27 02:31 17.92469 -21.63314 38052 ft 451 kts 234°
2026-04-27 02:32 17.88173 -21.68120 38057 ft 451 kts 234°
2026-04-27 02:32 17.83873 -21.72926 38040 ft 451 kts 234°
2026-04-27 02:33 17.79566 -21.77738 38055 ft 452 kts 234°
2026-04-27 02:33 17.75287 -21.82514 38050 ft 452 kts 234°
2026-04-27 02:34 17.70973 -21.87326 38055 ft 453 kts 234°
2026-04-27 02:34 17.66655 -21.92137 38058 ft 453 kts 234°
2026-04-27 02:35 17.62342 -21.96944 38055 ft 453 kts 234°
2026-04-27 02:35 17.58022 -22.01760 38053 ft 453 kts 234°
2026-04-27 02:36 17.53736 -22.06535 38052 ft 453 kts 234°
2026-04-27 02:36 17.49421 -22.11338 38052 ft 453 kts 234°
2026-04-27 02:37 17.45099 -22.16147 38058 ft 454 kts 234°
2026-04-27 02:37 17.40756 -22.20975 38056 ft 454 kts 234°
2026-04-27 02:38 17.36420 -22.25790 38055 ft 454 kts 233°
2026-04-27 02:38 17.32083 -22.30602 38056 ft 454 kts 233°
2026-04-27 02:39 17.27772 -22.35384 38058 ft 454 kts 233°
2026-04-27 02:39 17.23423 -22.40203 38055 ft 454 kts 233°
2026-04-27 02:40 17.19079 -22.45014 38054 ft 454 kts 233°
2026-04-27 02:40 17.14732 -22.49825 38054 ft 455 kts 233°
2026-04-27 02:41 17.10374 -22.54644 38043 ft 456 kts 233°
2026-04-27 02:41 17.06034 -22.59441 38053 ft 458 kts 232°
2026-04-27 02:42 17.01654 -22.64277 38055 ft 458 kts 232°
2026-04-27 02:42 16.97269 -22.69114 38055 ft 458 kts 232°
2026-04-27 02:43 16.92875 -22.73957 38059 ft 458 kts 232°
2026-04-27 02:43 16.88522 -22.78753 38049 ft 458 kts 232°
2026-04-27 02:44 16.84129 -22.83592 38049 ft 459 kts 232°
2026-04-27 02:44 16.79722 -22.88440 38047 ft 460 kts 232°
2026-04-27 02:45 16.75318 -22.93281 38047 ft 460 kts 232°
2026-04-27 02:45 16.72942 -22.95541 38049 ft 468 kts 221°
2026-04-27 02:45 16.70146 -22.97338 38047 ft 474 kts 214°
2026-04-27 02:46 16.64149 -23.00239 38050 ft 480 kts 210°
2026-04-27 02:46 16.58017 -23.03009 38050 ft 480 kts 210°
2026-04-27 02:47 16.51944 -23.05900 38051 ft 479 kts 211°
2026-04-27 02:47 16.45920 -23.08871 38055 ft 478 kts 212°
2026-04-27 02:48 16.39909 -23.11865 38046 ft 479 kts 212°
2026-04-27 02:48 16.33888 -23.14860 38056 ft 480 kts 211°
2026-04-27 02:49 16.27848 -23.17856 38056 ft 480 kts 211°
2026-04-27 02:49 16.21816 -23.20842 38053 ft 480 kts 211°
2026-04-27 02:50 16.15779 -23.23829 38056 ft 480 kts 211°
2026-04-27 02:50 16.09778 -23.26796 38053 ft 480 kts 211°
2026-04-27 02:51 16.03729 -23.29786 38052 ft 480 kts 211°
2026-04-27 02:51 15.97691 -23.32769 38056 ft 481 kts 211°
2026-04-27 02:52 15.91634 -23.35758 38053 ft 481 kts 211°
2026-04-27 02:52 15.85584 -23.38741 38053 ft 481 kts 211°
2026-04-27 02:53 15.79572 -23.41704 38051 ft 481 kts 211°
2026-04-27 02:53 15.73519 -23.44686 38050 ft 481 kts 211°
2026-04-27 02:54 15.67455 -23.47671 38047 ft 482 kts 210°
2026-04-27 02:54 15.61390 -23.50654 38048 ft 482 kts 210°
2026-04-27 02:55 15.55327 -23.53635 38050 ft 482 kts 210°
2026-04-27 02:55 15.49263 -23.56613 38051 ft 482 kts 210°
2026-04-27 02:56 15.43203 -23.59589 38048 ft 482 kts 210°
2026-04-27 02:56 15.37133 -23.62567 38048 ft 482 kts 210°
2026-04-27 02:57 15.31071 -23.65539 38049 ft 482 kts 210°
2026-04-27 02:57 15.25005 -23.68511 38045 ft 482 kts 210°
2026-04-27 02:58 15.18933 -23.71484 38043 ft 482 kts 210°
2026-04-27 02:58 15.12899 -23.74437 38044 ft 482 kts 210°
2026-04-27 02:59 15.06830 -23.77405 38045 ft 482 kts 210°
2026-04-27 02:59 15.00758 -23.80373 38040 ft 482 kts 209°
2026-04-27 03:00 14.94679 -23.83342 38043 ft 483 kts 209°
2026-04-27 03:00 14.88600 -23.86310 38037 ft 483 kts 209°
2026-04-27 03:01 14.82512 -23.89279 38034 ft 483 kts 209°
2026-04-27 03:01 14.76465 -23.92227 38031 ft 483 kts 209°
2026-04-27 03:02 14.70388 -23.95188 38034 ft 483 kts 209°
2026-04-27 03:02 14.64302 -23.98152 38034 ft 484 kts 209°
2026-04-27 03:03 14.55139 -24.02610 38034 ft 485 kts 209°
2026-04-27 03:04 14.49029 -24.05580 38034 ft 485 kts 209°
2026-04-27 03:04 14.42920 -24.08548 38028 ft 485 kts 209°
2026-04-27 03:05 14.37835 -24.11017 38029 ft 486 kts 209°
2026-04-27 03:05 14.31712 -24.13989 38022 ft 486 kts 208°
2026-04-27 03:06 14.25578 -24.16965 38026 ft 488 kts 208°
2026-04-27 03:06 14.19433 -24.19943 38026 ft 488 kts 208°
2026-04-27 03:07 14.13279 -24.22924 38028 ft 488 kts 208°
2026-04-27 03:07 14.07129 -24.25901 38026 ft 488 kts 208°
2026-04-27 03:08 14.00982 -24.28876 38021 ft 488 kts 208°
2026-04-27 03:08 13.94828 -24.31852 38024 ft 489 kts 208°
2026-04-27 03:09 13.88696 -24.34816 38023 ft 489 kts 208°
2026-04-27 03:09 13.82523 -24.37797 38023 ft 490 kts 208°
2026-04-27 03:10 13.76345 -24.40779 38020 ft 490 kts 208°
2026-04-27 03:10 13.70171 -24.43758 38020 ft 490 kts 208°
2026-04-27 03:11 13.64028 -24.46703 38025 ft 490 kts 208°
2026-04-27 03:11 13.57836 -24.49658 38018 ft 490 kts 208°
2026-04-27 03:12 13.51647 -24.52609 38017 ft 490 kts 208°
2026-04-27 03:12 13.45459 -24.55560 38015 ft 490 kts 208°
2026-04-27 03:13 13.39264 -24.58513 38015 ft 490 kts 208°
2026-04-27 03:13 13.33075 -24.61462 38015 ft 490 kts 208°
2026-04-27 03:14 13.26925 -24.64391 38016 ft 490 kts 208°
2026-04-27 03:14 13.20734 -24.67338 38016 ft 490 kts 208°
2026-04-27 03:15 13.14533 -24.70287 38008 ft 490 kts 208°
2026-04-27 03:15 13.08333 -24.73235 38014 ft 491 kts 208°
2026-04-27 03:16 13.02172 -24.76162 38019 ft 491 kts 208°
2026-04-27 03:16 12.95973 -24.79106 38015 ft 491 kts 208°
2026-04-27 03:17 12.89773 -24.82049 38014 ft 491 kts 207°
2026-04-27 03:17 12.83571 -24.84991 38016 ft 491 kts 207°
2026-04-27 03:18 12.77369 -24.87932 38016 ft 491 kts 207°
2026-04-27 03:18 12.71172 -24.90868 38015 ft 491 kts 207°
2026-04-27 03:19 12.64973 -24.93804 38010 ft 491 kts 207°
2026-04-27 03:19 12.58811 -24.96721 38019 ft 491 kts 207°
2026-04-27 03:20 12.52619 -24.99650 38007 ft 490 kts 207°
2026-04-27 03:20 12.46409 -25.02586 38009 ft 489 kts 207°
2026-04-27 03:21 12.40267 -25.05489 38026 ft 490 kts 207°
2026-04-27 03:21 12.34078 -25.08412 38006 ft 490 kts 207°
2026-04-27 03:22 12.27897 -25.11330 38013 ft 490 kts 207°
2026-04-27 03:22 12.21712 -25.14248 38010 ft 489 kts 207°
2026-04-27 03:23 12.15538 -25.17160 38007 ft 489 kts 207°
2026-04-27 03:23 12.09359 -25.20072 38004 ft 489 kts 207°
2026-04-27 03:24 12.03183 -25.22982 38021 ft 488 kts 207°
2026-04-27 03:24 11.97013 -25.25887 38003 ft 488 kts 207°
2026-04-27 03:25 11.90837 -25.28794 38001 ft 488 kts 207°
2026-04-27 03:25 11.84678 -25.31691 38001 ft 487 kts 207°
2026-04-27 03:26 11.78526 -25.34583 38005 ft 486 kts 207°
2026-04-27 03:26 11.72384 -25.37470 37996 ft 486 kts 207°
2026-04-27 03:27 11.66234 -25.40359 38004 ft 486 kts 207°
2026-04-27 03:27 11.60082 -25.43247 38007 ft 486 kts 207°
2026-04-27 03:28 11.53967 -25.46117 38008 ft 486 kts 207°
2026-04-27 03:28 11.47830 -25.48995 37995 ft 486 kts 207°
2026-04-27 03:29 11.41682 -25.51877 38002 ft 486 kts 207°
2026-04-27 03:29 11.35539 -25.54756 38004 ft 486 kts 207°
2026-04-27 03:30 11.29402 -25.57630 38004 ft 486 kts 207°
2026-04-27 03:30 11.23258 -25.60506 38011 ft 486 kts 207°
2026-04-27 03:31 11.17111 -25.63383 38011 ft 486 kts 206°
2026-04-27 03:31 11.10960 -25.66259 38007 ft 487 kts 206°
2026-04-27 03:32 11.04796 -25.69141 37999 ft 487 kts 206°
2026-04-27 03:32 10.98630 -25.72022 38007 ft 487 kts 206°
2026-04-27 03:33 10.92504 -25.74883 37999 ft 487 kts 206°
2026-04-27 03:33 10.86340 -25.77761 38000 ft 487 kts 206°
2026-04-27 03:34 10.80179 -25.80635 38001 ft 486 kts 206°
2026-04-27 03:34 10.74037 -25.83499 38002 ft 486 kts 206°
2026-04-27 03:35 10.67887 -25.86367 38005 ft 486 kts 206°
2026-04-27 03:35 10.61737 -25.89232 37998 ft 486 kts 206°
2026-04-27 03:36 10.55592 -25.92095 37999 ft 486 kts 206°
2026-04-27 03:36 10.49445 -25.94957 37995 ft 486 kts 206°
2026-04-27 03:37 10.43339 -25.97798 37998 ft 485 kts 206°
2026-04-27 03:37 10.37187 -26.00660 37996 ft 485 kts 206°
2026-04-27 03:38 10.31041 -26.03517 37998 ft 485 kts 206°
2026-04-27 03:38 10.24903 -26.06370 37996 ft 486 kts 206°
2026-04-27 03:39 10.18761 -26.09223 37995 ft 485 kts 206°
2026-04-27 03:39 10.12613 -26.12078 37991 ft 486 kts 206°
2026-04-27 03:40 10.06446 -26.14941 37991 ft 487 kts 206°
2026-04-27 03:40 10.00323 -26.17782 37995 ft 487 kts 206°
2026-04-27 03:41 9.94163 -26.20639 37994 ft 487 kts 205°
2026-04-27 03:41 9.88004 -26.23494 37986 ft 487 kts 205°
2026-04-27 03:42 9.81840 -26.26350 37979 ft 487 kts 205°
2026-04-27 03:42 9.75677 -26.29205 37982 ft 487 kts 206°
2026-04-27 03:43 9.69510 -26.32060 37992 ft 487 kts 205°
2026-04-27 03:43 9.63341 -26.34915 37985 ft 487 kts 205°
2026-04-27 03:44 9.57212 -26.37751 37983 ft 487 kts 205°
2026-04-27 03:44 9.51043 -26.40604 37990 ft 487 kts 205°
2026-04-27 03:45 9.44880 -26.43453 37982 ft 486 kts 205°
2026-04-27 03:45 9.38731 -26.46295 37986 ft 485 kts 205°
2026-04-27 03:46 9.32585 -26.49133 37980 ft 485 kts 205°
2026-04-27 03:46 9.26439 -26.51971 37980 ft 485 kts 205°
2026-04-27 03:47 9.20292 -26.54808 37987 ft 485 kts 205°
2026-04-27 03:47 9.14178 -26.57629 37984 ft 485 kts 205°
2026-04-27 03:48 9.08032 -26.60464 37979 ft 485 kts 204°
2026-04-27 03:48 9.01890 -26.63295 37983 ft 485 kts 204°
2026-04-27 03:49 8.95753 -26.66123 37979 ft 485 kts 205°
2026-04-27 03:49 8.89609 -26.68954 37977 ft 485 kts 205°
2026-04-27 03:50 8.83471 -26.71781 37981 ft 485 kts 205°
2026-04-27 03:50 8.77322 -26.74611 37982 ft 485 kts 204°
2026-04-27 03:51 8.71181 -26.77437 37983 ft 485 kts 204°
2026-04-27 03:51 8.65081 -26.80243 37973 ft 484 kts 204°
2026-04-27 03:52 8.58941 -26.83066 37979 ft 485 kts 204°
2026-04-27 03:52 8.52794 -26.85892 37982 ft 485 kts 204°
2026-04-27 03:53 8.47683 -26.88239 37974 ft 485 kts 204°
2026-04-27 03:53 8.41543 -26.91058 37981 ft 484 kts 204°
2026-04-27 03:54 8.35420 -26.93868 37982 ft 483 kts 204°
2026-04-27 03:54 8.29297 -26.96677 37982 ft 483 kts 204°
2026-04-27 03:55 8.23161 -26.99491 37980 ft 483 kts 204°
2026-04-27 03:55 8.17073 -27.02282 37980 ft 483 kts 204°
2026-04-27 03:56 8.10954 -27.05087 37981 ft 483 kts 204°
2026-04-27 03:56 8.04848 -27.07885 37984 ft 482 kts 204°
2026-04-27 03:57 7.98744 -27.10681 37975 ft 481 kts 204°
2026-04-27 03:57 7.92646 -27.13473 37975 ft 481 kts 204°
2026-04-27 03:58 7.86546 -27.16265 37978 ft 481 kts 204°
2026-04-27 03:58 7.80489 -27.19036 37972 ft 481 kts 204°
2026-04-27 03:59 7.74389 -27.21827 37976 ft 481 kts 204°
2026-04-27 03:59 7.68290 -27.24616 37971 ft 480 kts 204°
2026-04-27 04:00 7.62197 -27.27401 37978 ft 480 kts 204°
2026-04-27 04:00 7.56107 -27.30184 37973 ft 480 kts 204°
2026-04-27 04:01 7.50018 -27.32966 37980 ft 480 kts 204°
2026-04-27 04:01 7.43964 -27.35731 37963 ft 480 kts 204°
2026-04-27 04:02 7.37880 -27.38508 37972 ft 480 kts 204°
2026-04-27 04:02 7.31797 -27.41285 37966 ft 480 kts 204°
2026-04-27 04:03 7.25707 -27.44064 37976 ft 480 kts 204°
2026-04-27 04:03 7.19617 -27.46842 37958 ft 480 kts 204°
2026-04-27 04:04 7.13540 -27.49613 37973 ft 480 kts 203°
2026-04-27 04:04 7.07456 -27.52387 37977 ft 479 kts 203°
2026-04-27 04:05 7.01383 -27.55155 37961 ft 479 kts 203°
2026-04-27 04:05 6.95350 -27.57904 37962 ft 479 kts 203°
2026-04-27 04:06 6.89265 -27.60675 37972 ft 479 kts 203°
2026-04-27 04:06 6.83174 -27.63449 37959 ft 479 kts 203°
2026-04-27 04:07 6.74061 -27.67598 37962 ft 479 kts 203°
2026-04-27 04:07 6.68022 -27.70347 37976 ft 478 kts 203°
2026-04-27 04:08 6.61965 -27.73103 37960 ft 477 kts 203°
2026-04-27 04:08 6.55914 -27.75855 37968 ft 477 kts 203°
2026-04-27 04:09 6.49853 -27.78611 37960 ft 478 kts 202°
2026-04-27 04:09 6.43789 -27.81368 37974 ft 479 kts 202°
2026-04-27 04:10 6.37711 -27.84130 37956 ft 479 kts 202°
2026-04-27 04:10 6.31640 -27.86890 37956 ft 479 kts 202°
2026-04-27 04:11 6.25566 -27.89649 37965 ft 479 kts 202°
2026-04-27 04:11 6.19496 -27.92406 37957 ft 479 kts 202°
2026-04-27 04:12 6.13467 -27.95143 37969 ft 479 kts 202°
2026-04-27 04:12 6.07383 -27.97905 37953 ft 479 kts 202°
2026-04-27 04:13 6.01305 -28.00664 37957 ft 478 kts 202°
2026-04-27 04:13 5.95242 -28.03415 37957 ft 477 kts 202°
2026-04-27 04:14 5.89186 -28.06162 37956 ft 477 kts 202°
2026-04-27 04:14 5.83173 -28.08889 37953 ft 478 kts 202°
2026-04-27 04:15 5.77096 -28.11644 37952 ft 479 kts 202°
2026-04-27 04:15 5.71016 -28.14399 37952 ft 479 kts 202°
2026-04-27 04:16 5.64941 -28.17153 37951 ft 478 kts 202°
2026-04-27 04:16 5.58884 -28.19898 37952 ft 477 kts 202°
2026-04-27 04:17 5.52818 -28.22645 37951 ft 478 kts 202°
2026-04-27 04:17 5.46754 -28.25391 37946 ft 478 kts 202°
2026-04-27 04:18 5.40732 -28.28118 37950 ft 478 kts 202°
2026-04-27 04:18 5.34668 -28.30863 37945 ft 478 kts 202°
2026-04-27 04:19 5.28597 -28.33610 37945 ft 478 kts 202°
2026-04-27 04:19 5.22519 -28.36361 37942 ft 478 kts 202°
2026-04-27 04:20 5.16451 -28.39105 37945 ft 478 kts 202°
2026-04-27 04:20 5.10428 -28.41830 37943 ft 478 kts 202°
2026-04-27 04:21 5.04363 -28.44572 37942 ft 478 kts 202°
2026-04-27 04:21 4.98288 -28.47318 37942 ft 479 kts 202°
2026-04-27 04:22 4.92199 -28.50070 37937 ft 479 kts 202°
2026-04-27 04:22 4.86112 -28.52821 37935 ft 480 kts 202°
2026-04-27 04:23 4.80027 -28.55571 37934 ft 480 kts 202°
2026-04-27 04:23 4.73980 -28.58303 37932 ft 480 kts 202°
2026-04-27 04:24 4.67857 -28.61068 37928 ft 480 kts 202°
2026-04-27 04:24 4.61806 -28.63800 37930 ft 480 kts 202°
2026-04-27 04:25 4.55712 -28.66551 37937 ft 480 kts 202°
2026-04-27 04:25 4.49618 -28.69302 37929 ft 480 kts 202°
2026-04-27 04:26 4.43518 -28.72055 37928 ft 480 kts 202°
2026-04-27 04:26 4.37418 -28.74808 37926 ft 480 kts 202°
2026-04-27 04:27 4.31321 -28.77558 37927 ft 480 kts 202°
2026-04-27 04:27 4.25264 -28.80290 37925 ft 481 kts 202°
2026-04-27 04:28 4.19164 -28.83041 37925 ft 481 kts 202°
2026-04-27 04:28 4.13063 -28.85792 37925 ft 481 kts 202°
2026-04-27 04:29 4.06965 -28.88541 37925 ft 481 kts 202°
2026-04-27 04:29 4.00857 -28.91295 37925 ft 481 kts 202°
2026-04-27 04:30 3.94764 -28.94041 37924 ft 480 kts 202°
2026-04-27 04:30 3.88667 -28.96788 37925 ft 480 kts 202°
2026-04-27 04:31 3.82565 -28.99537 37919 ft 481 kts 202°
2026-04-27 04:31 3.76453 -29.02290 37923 ft 481 kts 202°
2026-04-27 04:32 3.70382 -29.05025 37922 ft 481 kts 202°
2026-04-27 04:32 3.64273 -29.07776 37922 ft 481 kts 201°
2026-04-27 04:33 3.58168 -29.10524 37919 ft 481 kts 202°
2026-04-27 04:33 3.52059 -29.13275 37920 ft 481 kts 201°
2026-04-27 04:34 3.45952 -29.16024 37918 ft 481 kts 201°
2026-04-27 04:34 3.39832 -29.18778 37920 ft 481 kts 202°
2026-04-27 04:35 3.33722 -29.21527 37920 ft 481 kts 201°
2026-04-27 04:35 3.27642 -29.24263 37919 ft 482 kts 202°
2026-04-27 04:36 3.21511 -29.27021 37919 ft 483 kts 202°
2026-04-27 04:36 3.15379 -29.29779 37919 ft 483 kts 202°
2026-04-27 04:37 3.09239 -29.32541 37917 ft 483 kts 202°
2026-04-27 04:37 3.03111 -29.35296 37914 ft 483 kts 202°
2026-04-27 04:38 2.97012 -29.38038 37917 ft 483 kts 202°
2026-04-27 04:38 2.90878 -29.40796 37916 ft 483 kts 202°
2026-04-27 04:39 2.84742 -29.43555 37916 ft 483 kts 202°
2026-04-27 04:39 2.78607 -29.46312 37916 ft 483 kts 202°
2026-04-27 04:40 2.72475 -29.49068 37914 ft 483 kts 202°
2026-04-27 04:40 2.67374 -29.51360 37914 ft 483 kts 201°
2026-04-27 04:41 2.61243 -29.54115 37917 ft 483 kts 202°
2026-04-27 04:41 2.55117 -29.56867 37916 ft 483 kts 202°
2026-04-27 04:42 2.48988 -29.59620 37914 ft 483 kts 202°
2026-04-27 04:42 2.42858 -29.62374 37914 ft 483 kts 202°
2026-04-27 04:43 2.36731 -29.65126 37916 ft 483 kts 202°
2026-04-27 04:43 2.30607 -29.67876 37918 ft 483 kts 202°
2026-04-27 04:44 2.24516 -29.70611 37914 ft 483 kts 202°
2026-04-27 04:44 2.18371 -29.73370 37914 ft 483 kts 202°
2026-04-27 04:45 2.12239 -29.76124 37914 ft 483 kts 202°
2026-04-27 04:45 2.06104 -29.78878 37914 ft 483 kts 202°
2026-04-27 04:46 1.99968 -29.81632 37917 ft 483 kts 202°
2026-04-27 04:46 1.93822 -29.84391 37917 ft 484 kts 201°
2026-04-27 04:47 1.87676 -29.87149 37914 ft 484 kts 201°
2026-04-27 04:47 1.81526 -29.89909 37914 ft 484 kts 201°
2026-04-27 04:48 1.75406 -29.92655 37914 ft 484 kts 201°
2026-04-27 04:48 1.69262 -29.95412 37914 ft 484 kts 201°
2026-04-27 04:49 1.63098 -29.98178 37911 ft 485 kts 201°
2026-04-27 04:49 1.56931 -30.00945 37911 ft 486 kts 201°
2026-04-27 04:50 1.50792 -30.03699 37911 ft 486 kts 201°
2026-04-27 04:50 1.44625 -30.06466 37909 ft 486 kts 201°
2026-04-27 04:51 1.38452 -30.09235 37908 ft 486 kts 201°
2026-04-27 04:51 1.32281 -30.12003 37908 ft 486 kts 202°
2026-04-27 04:52 1.26121 -30.14766 37911 ft 485 kts 202°
2026-04-27 04:52 1.19973 -30.17523 37911 ft 484 kts 202°
2026-04-27 04:53 1.13822 -30.20282 37908 ft 484 kts 202°
2026-04-27 04:53 1.07676 -30.23038 37908 ft 484 kts 202°
2026-04-27 04:54 1.01526 -30.25796 37911 ft 484 kts 202°
2026-04-27 04:54 0.95424 -30.28532 37911 ft 484 kts 201°
2026-04-27 04:55 0.89286 -30.31284 37911 ft 483 kts 201°
2026-04-27 04:55 0.83146 -30.34038 37911 ft 483 kts 201°
2026-04-27 04:56 0.77011 -30.36789 37908 ft 483 kts 201°
2026-04-27 04:56 0.70867 -30.39543 37908 ft 483 kts 201°
2026-04-27 04:57 0.64721 -30.42299 37906 ft 484 kts 202°
2026-04-27 04:57 0.58561 -30.45060 37911 ft 486 kts 202°
2026-04-27 04:58 0.52391 -30.47827 37906 ft 486 kts 202°
2026-04-27 04:58 0.46257 -30.50577 37905 ft 486 kts 202°
2026-04-27 04:59 0.40087 -30.53343 37909 ft 486 kts 202°
2026-04-27 04:59 0.33915 -30.56110 37905 ft 486 kts 202°
2026-04-27 05:00 0.27738 -30.58878 37909 ft 487 kts 202°
2026-04-27 05:00 0.21550 -30.61652 37908 ft 487 kts 202°
2026-04-27 05:01 0.15360 -30.64427 37908 ft 487 kts 202°
2026-04-27 05:01 0.09205 -30.67186 37909 ft 487 kts 202°
2026-04-27 05:02 0.03019 -30.69958 37909 ft 487 kts 203°
2026-04-27 05:03 -0.06280 -30.74126 37912 ft 489 kts 203°
2026-04-27 05:03 -0.12484 -30.76907 37911 ft 489 kts 203°
2026-04-27 05:04 -0.18656 -30.79674 37909 ft 489 kts 202°
2026-04-27 05:04 -0.24865 -30.82457 37908 ft 489 kts 202°
2026-04-27 05:05 -0.31083 -30.85244 37912 ft 489 kts 202°
2026-04-27 05:05 -0.37289 -30.88026 37911 ft 489 kts 203°
2026-04-27 05:06 -0.43503 -30.90811 37911 ft 489 kts 203°
2026-04-27 05:06 -0.49718 -30.93597 37911 ft 489 kts 202°
2026-04-27 05:07 -0.55929 -30.96381 37912 ft 489 kts 202°
2026-04-27 05:07 -0.62144 -30.99168 37911 ft 490 kts 202°
2026-04-27 05:08 -0.68317 -31.01935 37912 ft 491 kts 202°
2026-04-27 05:08 -0.74571 -31.04738 37915 ft 493 kts 203°
2026-04-27 05:09 -0.80833 -31.07546 37912 ft 493 kts 202°
2026-04-27 05:09 -0.87117 -31.10304 37911 ft 493 kts 201°
2026-04-27 05:10 -0.93440 -31.12977 37909 ft 493 kts 201°
2026-04-27 05:10 -0.99760 -31.15635 37909 ft 493 kts 201°
2026-04-27 05:11 -1.06098 -31.18311 37914 ft 494 kts 201°
2026-04-27 05:11 -1.12433 -31.20994 37913 ft 495 kts 201°
2026-04-27 05:12 -1.18732 -31.23664 37911 ft 495 kts 201°
2026-04-27 05:12 -1.25076 -31.26354 37911 ft 495 kts 201°
2026-04-27 05:13 -1.31427 -31.29045 37911 ft 494 kts 201°
2026-04-27 05:13 -1.37750 -31.31725 37911 ft 493 kts 201°
2026-04-27 05:14 -1.44061 -31.34401 37911 ft 492 kts 201°
2026-04-27 05:14 -1.50364 -31.37073 37909 ft 492 kts 201°
2026-04-27 05:15 -1.56677 -31.39749 37910 ft 492 kts 201°
2026-04-27 05:15 -1.62938 -31.42403 37910 ft 492 kts 201°
2026-04-27 05:16 -1.69248 -31.45079 37912 ft 493 kts 201°
2026-04-27 05:16 -1.75572 -31.47760 37909 ft 493 kts 201°
2026-04-27 05:17 -1.81886 -31.50437 37908 ft 493 kts 201°
2026-04-27 05:17 -1.88211 -31.53119 37909 ft 493 kts 201°
2026-04-27 05:18 -1.94529 -31.55799 37912 ft 494 kts 201°
2026-04-27 05:18 -2.00863 -31.58485 37910 ft 495 kts 202°
2026-04-27 05:19 -2.07212 -31.61178 37908 ft 495 kts 202°
2026-04-27 05:19 -2.13551 -31.63867 37906 ft 495 kts 202°
2026-04-27 05:20 -2.19868 -31.66547 37908 ft 495 kts 202°
2026-04-27 05:20 -2.26214 -31.69240 37908 ft 495 kts 201°
2026-04-27 05:21 -2.32573 -31.71938 37908 ft 496 kts 201°
2026-04-27 05:21 -2.38934 -31.74637 37909 ft 497 kts 201°
2026-04-27 05:22 -2.45308 -31.77343 37908 ft 497 kts 201°
2026-04-27 05:22 -2.51685 -31.80049 37912 ft 497 kts 201°
2026-04-27 05:23 -2.58050 -31.82751 37907 ft 497 kts 201°
2026-04-27 05:23 -2.64376 -31.85437 37909 ft 498 kts 201°
2026-04-27 05:24 -2.70764 -31.88149 37909 ft 498 kts 201°
2026-04-27 05:24 -2.77150 -31.90861 37909 ft 499 kts 201°
2026-04-27 05:25 -2.83538 -31.93574 37908 ft 499 kts 201°
2026-04-27 05:25 -2.89925 -31.96287 37908 ft 499 kts 201°
2026-04-27 05:26 -2.96306 -31.98997 37905 ft 498 kts 201°
2026-04-27 05:26 -3.02684 -32.01707 37906 ft 498 kts 201°
2026-04-27 05:27 -3.09021 -32.04399 37909 ft 498 kts 201°
2026-04-27 05:27 -3.15400 -32.07110 37909 ft 498 kts 201°
2026-04-27 05:28 -3.21792 -32.09827 37909 ft 498 kts 201°
2026-04-27 05:28 -3.28162 -32.12584 37909 ft 499 kts 204°
2026-04-27 05:29 -3.34356 -32.15745 37906 ft 501 kts 207°
2026-04-27 05:29 -3.40454 -32.19048 37906 ft 501 kts 207°
2026-04-27 05:30 -3.46591 -32.22345 37910 ft 501 kts 206°
2026-04-27 05:30 -3.52757 -32.25616 37906 ft 501 kts 206°
2026-04-27 05:31 -3.57878 -32.28317 37905 ft 501 kts 206°
2026-04-27 05:31 -3.64044 -32.31568 37908 ft 501 kts 206°
2026-04-27 05:32 -3.71215 -32.35352 37910 ft 501 kts 206°
2026-04-27 05:32 -3.76350 -32.38063 37911 ft 501 kts 206°
2026-04-27 05:33 -3.82529 -32.41326 37911 ft 502 kts 206°
2026-04-27 05:33 -3.88709 -32.44566 37911 ft 502 kts 206°
2026-04-27 05:34 -3.94928 -32.47764 37911 ft 502 kts 205°
2026-04-27 05:34 -4.01163 -32.50961 37910 ft 502 kts 205°
2026-04-27 05:35 -4.07383 -32.54156 37908 ft 502 kts 205°
2026-04-27 05:35 -4.13605 -32.57357 37906 ft 502 kts 205°
2026-04-27 05:36 -4.19820 -32.60556 37904 ft 503 kts 206°
2026-04-27 05:36 -4.26020 -32.63749 37903 ft 504 kts 206°
2026-04-27 05:37 -4.32260 -32.66962 37906 ft 504 kts 206°
2026-04-27 05:37 -4.38500 -32.70177 37908 ft 504 kts 206°
2026-04-27 05:38 -4.44747 -32.73395 37905 ft 504 kts 206°
2026-04-27 05:38 -4.50986 -32.76609 37904 ft 504 kts 206°
2026-04-27 05:39 -4.57233 -32.79829 37906 ft 505 kts 206°
2026-04-27 05:39 -4.63491 -32.83051 37905 ft 505 kts 206°
2026-04-27 05:40 -4.69704 -32.86243 37906 ft 505 kts 206°
2026-04-27 05:40 -4.75970 -32.89461 37908 ft 505 kts 206°
2026-04-27 05:41 -4.82202 -32.92664 37904 ft 506 kts 206°
2026-04-27 05:41 -4.88461 -32.95881 37906 ft 506 kts 206°
2026-04-27 05:42 -4.94725 -32.99103 37906 ft 506 kts 206°
2026-04-27 05:42 -5.01002 -33.02331 37906 ft 506 kts 206°
2026-04-27 05:43 -5.07230 -33.05535 37904 ft 506 kts 206°
2026-04-27 05:43 -5.13502 -33.08762 37906 ft 506 kts 206°
2026-04-27 05:44 -5.19754 -33.11980 37908 ft 504 kts 206°
2026-04-27 05:44 -5.26004 -33.15197 37908 ft 504 kts 206°
2026-04-27 05:45 -5.32259 -33.18418 37909 ft 505 kts 206°
2026-04-27 05:45 -5.38520 -33.21642 37908 ft 506 kts 206°
2026-04-27 05:46 -5.44747 -33.24850 37908 ft 506 kts 206°
2026-04-27 05:46 -5.51017 -33.28081 37908 ft 506 kts 206°
2026-04-27 05:47 -5.57295 -33.31316 37910 ft 507 kts 206°
2026-04-27 05:47 -5.63569 -33.34551 37909 ft 507 kts 206°
2026-04-27 05:48 -5.69842 -33.37785 37906 ft 507 kts 206°
2026-04-27 05:48 -5.76115 -33.41021 37911 ft 507 kts 206°
2026-04-27 05:49 -5.82403 -33.44264 37911 ft 508 kts 206°
2026-04-27 05:49 -5.88652 -33.47489 37914 ft 508 kts 206°
2026-04-27 05:50 -5.94955 -33.50742 37914 ft 508 kts 206°
2026-04-27 05:50 -6.01248 -33.53991 37914 ft 508 kts 206°
2026-04-27 05:51 -6.07541 -33.57241 37912 ft 508 kts 206°
2026-04-27 05:51 -6.13836 -33.60493 37911 ft 508 kts 206°
2026-04-27 05:52 -6.20084 -33.63721 37912 ft 508 kts 206°
2026-04-27 05:52 -6.26373 -33.66972 37916 ft 508 kts 206°
2026-04-27 05:53 -6.32667 -33.70225 37922 ft 508 kts 206°
2026-04-27 05:53 -6.38944 -33.73471 37916 ft 506 kts 206°
2026-04-27 05:54 -6.45203 -33.76709 37916 ft 505 kts 206°
2026-04-27 05:54 -6.51461 -33.79947 37916 ft 505 kts 206°
2026-04-27 05:55 -6.57712 -33.83182 37919 ft 505 kts 206°
2026-04-27 05:55 -6.63962 -33.86418 37919 ft 505 kts 206°
2026-04-27 05:56 -6.70219 -33.89658 37919 ft 505 kts 206°
2026-04-27 05:56 -6.76425 -33.92872 37919 ft 505 kts 206°
2026-04-27 05:57 -6.82680 -33.96114 37922 ft 505 kts 206°
2026-04-27 05:57 -6.88931 -33.99353 37922 ft 505 kts 206°
2026-04-27 05:58 -6.95180 -34.02593 37925 ft 505 kts 206°
2026-04-27 05:58 -7.01419 -34.05829 37924 ft 504 kts 206°
2026-04-27 05:59 -7.07649 -34.09061 37925 ft 504 kts 206°
2026-04-27 05:59 -7.13883 -34.12296 37925 ft 504 kts 206°
2026-04-27 06:00 -7.23192 -34.17128 37931 ft 504 kts 206°
2026-04-27 06:00 -7.29416 -34.20360 37932 ft 503 kts 206°
2026-04-27 06:01 -7.35633 -34.23590 37929 ft 503 kts 206°
2026-04-27 06:01 -7.41854 -34.26823 37931 ft 503 kts 206°
2026-04-27 06:02 -7.48084 -34.30062 37933 ft 503 kts 206°
2026-04-27 06:02 -7.54307 -34.33297 37935 ft 503 kts 206°
2026-04-27 06:03 -7.60525 -34.36532 37933 ft 503 kts 206°
2026-04-27 06:03 -7.66707 -34.39748 37936 ft 503 kts 206°
2026-04-27 06:04 -7.72932 -34.42989 37938 ft 503 kts 206°
2026-04-27 06:04 -7.79138 -34.46256 37938 ft 503 kts 207°
2026-04-27 06:05 -7.85320 -34.49596 37939 ft 503 kts 207°
2026-04-27 06:05 -7.91487 -34.52943 37941 ft 504 kts 207°
2026-04-27 06:06 -7.97673 -34.56294 37938 ft 504 kts 207°
2026-04-27 06:06 -8.03854 -34.59637 37941 ft 504 kts 207°
2026-04-27 06:07 -8.10004 -34.62963 37946 ft 504 kts 207°
2026-04-27 06:07 -8.16288 -34.66059 37947 ft 502 kts 202°
2026-04-27 06:08 -8.22752 -34.68735 37942 ft 501 kts 200°
2026-04-27 06:08 -8.29240 -34.71343 37945 ft 501 kts 201°
2026-04-27 06:09 -8.35711 -34.73987 37947 ft 501 kts 201°
2026-04-27 06:09 -8.42160 -34.76658 37948 ft 501 kts 201°
2026-04-27 06:10 -8.48606 -34.79338 37953 ft 500 kts 201°
2026-04-27 06:10 -8.55037 -34.82013 37952 ft 500 kts 201°
2026-04-27 06:11 -8.61432 -34.84672 37954 ft 500 kts 201°
2026-04-27 06:11 -8.67869 -34.87349 37956 ft 499 kts 201°
2026-04-27 06:12 -8.74301 -34.90024 37955 ft 499 kts 201°
2026-04-27 06:12 -8.80727 -34.92698 37957 ft 499 kts 201°
2026-04-27 06:13 -8.87149 -34.95372 37953 ft 499 kts 201°
2026-04-27 06:13 -8.93574 -34.98047 37955 ft 499 kts 201°
2026-04-27 06:14 -8.99951 -35.00704 37954 ft 498 kts 201°
2026-04-27 06:14 -9.06320 -35.03452 37961 ft 498 kts 205°
2026-04-27 06:15 -9.12426 -35.06798 37962 ft 499 kts 209°
2026-04-27 06:15 -9.18410 -35.10363 37965 ft 499 kts 210°
2026-04-27 06:16 -9.24396 -35.13907 37964 ft 499 kts 209°
2026-04-27 06:16 -9.30420 -35.17417 37965 ft 499 kts 209°
2026-04-27 06:17 -9.36415 -35.20885 37965 ft 499 kts 209°
2026-04-27 06:17 -9.42454 -35.24378 37968 ft 499 kts 209°
2026-04-27 06:18 -9.48485 -35.27869 37968 ft 499 kts 209°
2026-04-27 06:18 -9.54513 -35.31362 37968 ft 498 kts 209°
2026-04-27 06:19 -9.60533 -35.34852 37968 ft 499 kts 209°
2026-04-27 06:19 -9.66555 -35.38345 37972 ft 499 kts 209°
2026-04-27 06:20 -9.72580 -35.41840 37971 ft 499 kts 209°
2026-04-27 06:20 -9.78592 -35.45330 37971 ft 498 kts 209°
2026-04-27 06:21 -9.84581 -35.48807 37972 ft 499 kts 209°
2026-04-27 06:21 -9.90594 -35.52301 37971 ft 498 kts 209°
2026-04-27 06:22 -9.96603 -35.55793 37972 ft 497 kts 209°
2026-04-27 06:22 -10.02606 -35.59283 37974 ft 497 kts 209°
2026-04-27 06:23 -10.07595 -35.62185 37974 ft 497 kts 209°
2026-04-27 06:23 -10.13598 -35.65678 37973 ft 497 kts 209°
2026-04-27 06:24 -10.19594 -35.69169 37973 ft 496 kts 209°
2026-04-27 06:24 -10.25592 -35.72662 37974 ft 496 kts 209°
2026-04-27 06:25 -10.31575 -35.76148 37978 ft 496 kts 209°
2026-04-27 06:25 -10.37565 -35.79640 37976 ft 496 kts 209°
2026-04-27 06:26 -10.43550 -35.83130 37974 ft 496 kts 209°
2026-04-27 06:26 -10.49493 -35.86597 37975 ft 495 kts 209°
2026-04-27 06:27 -10.55464 -35.90083 37974 ft 495 kts 209°
2026-04-27 06:27 -10.61444 -35.93574 37972 ft 495 kts 209°
2026-04-27 06:28 -10.67418 -35.97065 37981 ft 495 kts 209°
2026-04-27 06:28 -10.73387 -36.00554 37979 ft 494 kts 209°
2026-04-27 06:29 -10.79354 -36.04044 37979 ft 494 kts 208°
2026-04-27 06:29 -10.85318 -36.07533 37980 ft 494 kts 209°
2026-04-27 06:30 -10.91243 -36.11001 37983 ft 494 kts 209°
2026-04-27 06:30 -10.97202 -36.14491 37979 ft 494 kts 209°
2026-04-27 06:31 -11.03160 -36.17981 37979 ft 494 kts 209°
2026-04-27 06:31 -11.09125 -36.21478 37983 ft 495 kts 209°
2026-04-27 06:32 -11.15118 -36.24914 37982 ft 494 kts 207°
2026-04-27 06:32 -11.21236 -36.28132 37982 ft 494 kts 206°
2026-04-27 06:33 -11.27369 -36.31295 37984 ft 494 kts 206°
2026-04-27 06:33 -11.33489 -36.34476 37983 ft 494 kts 206°
2026-04-27 06:34 -11.39605 -36.37678 37978 ft 494 kts 206°
2026-04-27 06:34 -11.45712 -36.40884 37979 ft 494 kts 207°
2026-04-27 06:35 -11.51816 -36.44091 37981 ft 494 kts 206°
2026-04-27 06:35 -11.57932 -36.47304 37983 ft 494 kts 206°
2026-04-27 06:36 -11.64004 -36.50495 37982 ft 494 kts 206°
2026-04-27 06:36 -11.70116 -36.53708 37985 ft 494 kts 207°
2026-04-27 06:37 -11.76227 -36.56924 37983 ft 494 kts 206°
2026-04-27 06:37 -11.82346 -36.60144 37992 ft 494 kts 207°
2026-04-27 06:38 -11.88473 -36.63370 37993 ft 496 kts 207°
2026-04-27 06:38 -11.94611 -36.66604 37991 ft 496 kts 206°
2026-04-27 06:39 -12.00694 -36.69811 37998 ft 496 kts 207°
2026-04-27 06:39 -12.06825 -36.73044 38002 ft 496 kts 207°
2026-04-27 06:40 -12.12960 -36.76282 37997 ft 496 kts 207°
2026-04-27 06:40 -12.19088 -36.79516 37989 ft 496 kts 206°
2026-04-27 06:41 -12.25231 -36.82761 37975 ft 496 kts 207°
2026-04-27 06:41 -12.31359 -36.86000 37993 ft 496 kts 206°
2026-04-27 06:42 -12.37490 -36.89242 37989 ft 496 kts 206°
2026-04-27 06:42 -12.43583 -36.92466 37982 ft 496 kts 207°
2026-04-27 06:43 -12.49705 -36.95706 37982 ft 496 kts 207°
2026-04-27 06:43 -12.55845 -36.98958 37994 ft 496 kts 206°
2026-04-27 06:44 -12.61969 -37.02203 37995 ft 495 kts 207°
2026-04-27 06:44 -12.68082 -37.05445 37996 ft 494 kts 207°
2026-04-27 06:45 -12.74196 -37.08689 37995 ft 494 kts 207°
2026-04-27 06:45 -12.80258 -37.11906 37989 ft 494 kts 207°
2026-04-27 06:46 -12.86362 -37.15147 37991 ft 494 kts 207°
2026-04-27 06:46 -12.92460 -37.18388 37994 ft 493 kts 207°
2026-04-27 06:47 -12.98562 -37.21632 38002 ft 493 kts 207°
2026-04-27 06:47 -13.04649 -37.24870 38004 ft 493 kts 207°
2026-04-27 06:48 -13.10741 -37.28113 38002 ft 493 kts 207°
2026-04-27 06:48 -13.16831 -37.31356 37999 ft 493 kts 207°
2026-04-27 06:49 -13.22881 -37.34580 37998 ft 492 kts 207°
2026-04-27 06:49 -13.28959 -37.37821 38002 ft 493 kts 207°
2026-04-27 06:50 -13.35041 -37.41065 38002 ft 492 kts 207°
2026-04-27 06:50 -13.41119 -37.44310 37998 ft 492 kts 207°
2026-04-27 06:51 -13.47190 -37.47552 38004 ft 491 kts 207°
2026-04-27 06:51 -13.53258 -37.50795 37999 ft 491 kts 207°
2026-04-27 06:52 -13.59324 -37.54039 38003 ft 491 kts 207°
2026-04-27 06:52 -13.65395 -37.57287 38003 ft 491 kts 207°
2026-04-27 06:53 -13.71422 -37.60512 38004 ft 490 kts 208°
2026-04-27 06:53 -13.77463 -37.63749 37996 ft 489 kts 208°
2026-04-27 06:54 -13.83499 -37.66984 38000 ft 489 kts 208°
2026-04-27 06:54 -13.89535 -37.70221 38001 ft 489 kts 208°
2026-04-27 06:55 -13.95574 -37.73462 38007 ft 489 kts 208°
2026-04-27 06:55 -14.01619 -37.76707 38001 ft 490 kts 208°
2026-04-27 06:56 -14.07664 -37.79955 38015 ft 489 kts 208°
2026-04-27 06:56 -14.13697 -37.83198 38008 ft 489 kts 208°
2026-04-27 06:57 -14.19699 -37.86427 38008 ft 489 kts 208°
2026-04-27 06:57 -14.25732 -37.89674 38003 ft 489 kts 208°
2026-04-27 06:58 -14.34792 -37.94554 38008 ft 489 kts 208°
2026-04-27 06:59 -14.40807 -37.97795 37998 ft 484 kts 208°
2026-04-27 06:59 -14.46753 -38.01002 38008 ft 481 kts 209°
2026-04-27 07:00 -14.52686 -38.04205 38000 ft 480 kts 209°
2026-04-27 07:00 -14.58577 -38.07387 38010 ft 481 kts 209°
2026-04-27 07:01 -14.64504 -38.10590 38011 ft 481 kts 209°
2026-04-27 07:01 -14.70427 -38.13792 38021 ft 481 kts 209°
2026-04-27 07:02 -14.76350 -38.16996 38012 ft 480 kts 209°
2026-04-27 07:02 -14.82270 -38.20201 38017 ft 480 kts 209°
2026-04-27 07:03 -14.88194 -38.23410 38017 ft 480 kts 209°
2026-04-27 07:03 -14.94124 -38.26625 38008 ft 480 kts 209°
2026-04-27 07:04 -15.00008 -38.29816 38014 ft 480 kts 209°
2026-04-27 07:04 -15.05929 -38.33030 38016 ft 480 kts 209°
2026-04-27 07:05 -15.11855 -38.36248 38015 ft 480 kts 209°
2026-04-27 07:05 -15.17779 -38.39469 38015 ft 480 kts 209°
2026-04-27 07:06 -15.23701 -38.42690 38018 ft 480 kts 209°
2026-04-27 07:06 -15.29622 -38.45913 38012 ft 480 kts 209°
2026-04-27 07:07 -15.35498 -38.49112 38010 ft 480 kts 209°
2026-04-27 07:07 -15.41427 -38.52344 38018 ft 480 kts 209°
2026-04-27 07:08 -15.47345 -38.55571 38021 ft 480 kts 209°
2026-04-27 07:08 -15.53257 -38.58797 38021 ft 480 kts 209°
2026-04-27 07:09 -15.59170 -38.62026 38019 ft 480 kts 209°
2026-04-27 07:09 -15.65086 -38.65258 38016 ft 480 kts 209°
2026-04-27 07:10 -15.70963 -38.68471 38010 ft 480 kts 209°
2026-04-27 07:10 -15.76874 -38.71705 38009 ft 480 kts 209°
2026-04-27 07:11 -15.82780 -38.74939 38015 ft 480 kts 209°
2026-04-27 07:11 -15.88682 -38.78172 38023 ft 480 kts 209°
2026-04-27 07:12 -15.94587 -38.81409 38027 ft 480 kts 209°
2026-04-27 07:12 -15.99496 -38.84102 38020 ft 479 kts 209°
2026-04-27 07:13 -16.05395 -38.87339 38016 ft 479 kts 209°
2026-04-27 07:13 -16.11294 -38.90580 38024 ft 479 kts 209°
2026-04-27 07:14 -16.17203 -38.93828 38029 ft 479 kts 209°
2026-04-27 07:14 -16.23060 -38.97048 38028 ft 479 kts 209°
2026-04-27 07:15 -16.28989 -39.00226 38022 ft 479 kts 208°
2026-04-27 07:15 -16.34942 -39.03368 38017 ft 480 kts 208°
2026-04-27 07:16 -16.40897 -39.06513 38020 ft 480 kts 208°
2026-04-27 07:16 -16.46804 -39.09688 38013 ft 473 kts 209°
2026-04-27 07:17 -16.52539 -39.12903 38013 ft 463 kts 210°
2026-04-27 07:17 -16.58161 -39.16084 38019 ft 462 kts 210°
2026-04-27 07:18 -16.63821 -39.19279 38034 ft 462 kts 210°
2026-04-27 07:18 -16.69489 -39.22469 38016 ft 463 kts 210°
2026-04-27 07:19 -16.75156 -39.25657 38033 ft 463 kts 210°
2026-04-27 07:19 -16.80824 -39.28848 38027 ft 462 kts 210°
2026-04-27 07:20 -16.86486 -39.32038 38020 ft 463 kts 210°
2026-04-27 07:20 -16.92149 -39.35232 38016 ft 463 kts 209°
2026-04-27 07:21 -16.97820 -39.38431 38017 ft 463 kts 210°
2026-04-27 07:21 -17.03448 -39.41609 38027 ft 463 kts 210°
2026-04-27 07:22 -17.09118 -39.44812 38020 ft 463 kts 210°
2026-04-27 07:22 -17.14784 -39.48016 38036 ft 463 kts 210°
2026-04-27 07:23 -17.20448 -39.51221 38032 ft 463 kts 210°
2026-04-27 07:23 -17.26117 -39.54431 38020 ft 463 kts 210°
2026-04-27 07:24 -17.31783 -39.57642 38016 ft 463 kts 210°
2026-04-27 07:24 -17.37448 -39.60854 38026 ft 463 kts 210°
2026-04-27 07:25 -17.43083 -39.64052 38020 ft 463 kts 210°
2026-04-27 07:25 -17.48749 -39.67269 38034 ft 463 kts 210°
2026-04-27 07:26 -17.54418 -39.70491 38014 ft 463 kts 210°
2026-04-27 07:26 -17.60042 -39.73689 38014 ft 463 kts 210°
2026-04-27 07:27 -17.65710 -39.76914 38014 ft 463 kts 210°
2026-04-27 07:27 -17.71367 -39.80136 38015 ft 462 kts 210°
2026-04-27 07:28 -17.77024 -39.83360 38012 ft 462 kts 210°
2026-04-27 07:28 -17.82680 -39.86586 38019 ft 462 kts 210°
2026-04-27 07:29 -17.88329 -39.89810 38013 ft 462 kts 210°
2026-04-27 07:29 -17.93933 -39.93010 38013 ft 460 kts 210°
2026-04-27 07:30 -17.99461 -39.96168 38013 ft 446 kts 210°
2026-04-27 07:30 -18.04904 -39.99267 38015 ft 443 kts 210°
2026-04-27 07:31 -18.10337 -40.02348 38017 ft 444 kts 210°
2026-04-27 07:31 -18.15770 -40.05430 38015 ft 443 kts 210°
2026-04-27 07:32 -18.21168 -40.08496 38012 ft 443 kts 210°
2026-04-27 07:32 -18.26604 -40.11587 38014 ft 443 kts 210°
2026-04-27 07:33 -18.32040 -40.14681 38019 ft 443 kts 210°
2026-04-27 07:33 -18.37464 -40.17769 38018 ft 443 kts 210°
2026-04-27 07:34 -18.42852 -40.20839 38019 ft 443 kts 210°
2026-04-27 07:34 -18.48263 -40.23925 38020 ft 443 kts 210°
2026-04-27 07:35 -18.53684 -40.27018 38018 ft 443 kts 210°
2026-04-27 07:35 -18.59105 -40.30114 38020 ft 443 kts 210°
2026-04-27 07:36 -18.64527 -40.33211 38022 ft 442 kts 210°
2026-04-27 07:36 -18.69924 -40.36298 38016 ft 437 kts 210°
2026-04-27 07:37 -18.75192 -40.39310 38023 ft 426 kts 210°
2026-04-27 07:37 -18.80387 -40.42286 38026 ft 425 kts 211°
2026-04-27 07:38 -18.85552 -40.45248 38024 ft 425 kts 211°
2026-04-27 07:38 -18.90744 -40.48226 38029 ft 425 kts 211°
2026-04-27 07:39 -18.95949 -40.51214 38029 ft 425 kts 211°
2026-04-27 07:39 -19.01147 -40.54198 38030 ft 425 kts 211°
2026-04-27 07:40 -19.06340 -40.57182 38033 ft 424 kts 211°
2026-04-27 07:40 -19.11530 -40.60167 38032 ft 424 kts 211°
2026-04-27 07:41 -19.16685 -40.63135 38029 ft 424 kts 211°
2026-04-27 07:41 -19.21872 -40.66122 38032 ft 424 kts 211°
2026-04-27 07:42 -19.27057 -40.69111 38032 ft 424 kts 211°
2026-04-27 07:42 -19.32234 -40.72097 38026 ft 423 kts 211°
2026-04-27 07:43 -19.37410 -40.75085 38031 ft 424 kts 211°
2026-04-27 07:43 -19.42587 -40.78075 38032 ft 424 kts 211°
2026-04-27 07:44 -19.47759 -40.81065 38031 ft 424 kts 211°
2026-04-27 07:44 -19.52937 -40.84059 38030 ft 423 kts 211°
2026-04-27 07:45 -19.58102 -40.87050 38035 ft 423 kts 211°
2026-04-27 07:45 -19.63270 -40.90051 38031 ft 423 kts 211°
2026-04-27 07:46 -19.68440 -40.93058 38030 ft 423 kts 212°
2026-04-27 07:46 -19.73576 -40.96048 38037 ft 424 kts 211°
2026-04-27 07:47 -19.78745 -40.99059 38038 ft 424 kts 211°
2026-04-27 07:47 -19.83922 -41.02075 38043 ft 424 kts 211°
2026-04-27 07:48 -19.89087 -41.05095 38046 ft 424 kts 211°
2026-04-27 07:48 -19.94247 -41.08125 38050 ft 423 kts 212°
2026-04-27 07:49 -19.99404 -41.11157 38060 ft 424 kts 212°
2026-04-27 07:49 -20.04571 -41.14195 38058 ft 424 kts 212°
2026-04-27 07:50 -20.09736 -41.17235 38060 ft 424 kts 212°
2026-04-27 07:50 -20.14860 -41.20253 38062 ft 423 kts 212°
2026-04-27 07:51 -20.20017 -41.23293 38063 ft 423 kts 212°
2026-04-27 07:51 -20.25142 -41.26315 38054 ft 414 kts 212°
2026-04-27 07:52 -20.30115 -41.29246 38056 ft 406 kts 212°
2026-04-27 07:52 -20.35025 -41.32148 38057 ft 406 kts 212°
2026-04-27 07:53 -20.39961 -41.35068 38052 ft 405 kts 212°
2026-04-27 07:53 -20.44899 -41.37990 38041 ft 406 kts 212°
2026-04-27 07:54 -20.49833 -41.40910 38046 ft 406 kts 212°
2026-04-27 07:54 -20.54791 -41.43828 38047 ft 406 kts 212°
2026-04-27 07:55 -20.59741 -41.46733 38021 ft 406 kts 212°
2026-04-27 07:55 -20.64661 -41.49624 38024 ft 406 kts 212°
2026-04-27 07:56 -20.69609 -41.52535 38027 ft 406 kts 212°
2026-04-27 07:56 -20.74566 -41.55455 38027 ft 406 kts 212°
2026-04-27 07:57 -20.79512 -41.58370 38010 ft 406 kts 213°
2026-04-27 07:57 -20.84535 -41.61335 38029 ft 417 kts 213°
2026-04-27 07:58 -20.89642 -41.64353 38017 ft 427 kts 212°
2026-04-27 07:58 -20.94915 -41.67471 38005 ft 438 kts 212°
2026-04-27 07:59 -21.00329 -41.70673 38009 ft 450 kts 213°
2026-04-27 07:59 -21.08625 -41.75582 37994 ft 458 kts 213°
2026-04-27 08:00 -21.14211 -41.78886 37995 ft 458 kts 213°
2026-04-27 08:00 -21.19791 -41.82194 37995 ft 458 kts 213°
2026-04-27 08:01 -21.25363 -41.85501 37984 ft 457 kts 213°
2026-04-27 08:01 -21.30929 -41.88808 37983 ft 457 kts 213°
2026-04-27 08:02 -21.36494 -41.92118 37980 ft 457 kts 213°
2026-04-27 08:02 -21.42060 -41.95430 37983 ft 457 kts 213°
2026-04-27 08:03 -21.46670 -41.98176 37980 ft 456 kts 213°
2026-04-27 08:03 -21.52191 -42.01465 37977 ft 449 kts 213°
2026-04-27 08:04 -21.57630 -42.04710 37982 ft 445 kts 213°
2026-04-27 08:04 -21.63016 -42.07927 37986 ft 445 kts 214°
2026-04-27 08:05 -21.68421 -42.11158 37989 ft 444 kts 214°
2026-04-27 08:05 -21.73755 -42.14346 37988 ft 434 kts 214°
2026-04-27 08:06 -21.79018 -42.17498 37984 ft 432 kts 214°
2026-04-27 08:06 -21.84283 -42.20659 38003 ft 436 kts 214°
2026-04-27 08:07 -21.86951 -42.22269 37877 ft 445 kts 214°
2026-04-27 08:07 -21.89669 -42.23910 37563 ft 448 kts 214°
2026-04-27 08:07 -21.92391 -42.25551 37205 ft 447 kts 214°
2026-04-27 08:07 -21.95100 -42.27186 36639 ft 447 kts 214°
2026-04-27 08:08 -21.97820 -42.28829 36078 ft 447 kts 214°
2026-04-27 08:08 -22.00534 -42.30469 35508 ft 447 kts 214°
2026-04-27 08:08 -22.03247 -42.32110 35005 ft 447 kts 214°
2026-04-27 08:08 -22.05927 -42.33731 34463 ft 447 kts 214°
2026-04-27 08:09 -22.08676 -42.35394 33927 ft 447 kts 213°
2026-04-27 08:09 -22.11399 -42.36918 33354 ft 446 kts 214°
2026-04-27 08:09 -22.13814 -42.38934 32755 ft 435 kts 232°
2026-04-27 08:09 -22.15523 -42.41577 32102 ft 427 kts 248°
2026-04-27 08:10 -22.16404 -42.44605 31407 ft 423 kts 264°
2026-04-27 08:10 -22.16804 -42.47758 30747 ft 426 kts 261°
2026-04-27 08:10 -22.17461 -42.50871 30245 ft 424 kts 260°
2026-04-27 08:10 -22.18107 -42.53953 29713 ft 417 kts 260°
2026-04-27 08:11 -22.18723 -42.56960 29155 ft 402 kts 260°
2026-04-27 08:11 -22.19301 -42.59864 28606 ft 389 kts 261°
2026-04-27 08:11 -22.19854 -42.62701 28090 ft 383 kts 261°
2026-04-27 08:11 -22.20393 -42.65506 27637 ft 381 kts 261°
2026-04-27 08:12 -22.20925 -42.68292 27191 ft 378 kts 261°
2026-04-27 08:12 -22.21445 -42.71027 26763 ft 375 kts 261°
2026-04-27 08:12 -22.21965 -42.73776 26337 ft 374 kts 261°
2026-04-27 08:12 -22.22485 -42.76527 25905 ft 372 kts 261°
2026-04-27 08:13 -22.22998 -42.79248 25450 ft 369 kts 261°
2026-04-27 08:13 -22.23508 -42.81951 24977 ft 365 kts 261°
2026-04-27 08:13 -22.24013 -42.84629 24542 ft 362 kts 261°
2026-04-27 08:13 -22.24511 -42.87278 24097 ft 359 kts 261°
2026-04-27 08:14 -22.25009 -42.89929 23669 ft 367 kts 261°
2026-04-27 08:14 -22.25524 -42.92678 23175 ft 378 kts 260°
2026-04-27 08:14 -22.26048 -42.95477 22668 ft 381 kts 260°
2026-04-27 08:14 -22.26574 -42.98278 22161 ft 378 kts 260°
2026-04-27 08:15 -22.27095 -43.01049 21665 ft 376 kts 260°
2026-04-27 08:15 -22.27611 -43.03803 21192 ft 372 kts 260°
2026-04-27 08:15 -22.28122 -43.06535 20715 ft 369 kts 260°
2026-04-27 08:15 -22.28629 -43.09247 20243 ft 366 kts 260°
2026-04-27 08:16 -22.29122 -43.11892 19800 ft 363 kts 260°
2026-04-27 08:16 -22.29618 -43.14561 19336 ft 361 kts 260°
2026-04-27 08:16 -22.30112 -43.17207 18890 ft 358 kts 260°
2026-04-27 08:16 -22.30603 -43.19845 18437 ft 356 kts 260°
2026-04-27 08:17 -22.31088 -43.22457 17939 ft 354 kts 260°
2026-04-27 08:17 -22.31613 -43.25051 17439 ft 352 kts 258°
2026-04-27 08:17 -22.32202 -43.27610 16947 ft 351 kts 257°
2026-04-27 08:17 -22.32805 -43.30161 16524 ft 349 kts 257°
2026-04-27 08:18 -22.33406 -43.32700 16111 ft 349 kts 257°
2026-04-27 08:18 -22.34006 -43.35240 15710 ft 348 kts 257°
2026-04-27 08:18 -22.34601 -43.37768 15296 ft 347 kts 257°
2026-04-27 08:18 -22.35195 -43.40290 14904 ft 346 kts 257°
2026-04-27 08:19 -22.35787 -43.42809 14512 ft 345 kts 257°
2026-04-27 08:19 -22.36376 -43.45320 14126 ft 345 kts 257°
2026-04-27 08:19 -22.36924 -43.47838 13734 ft 343 kts 259°
2026-04-27 08:19 -22.37788 -43.50186 13309 ft 345 kts 237°
2026-04-27 08:20 -22.39510 -43.51977 12835 ft 346 kts 213°
2026-04-27 08:20 -22.41765 -43.52860 12145 ft 349 kts 190°
2026-04-27 08:20 -22.44164 -43.53065 11418 ft 341 kts 187°
2026-04-27 08:20 -22.46495 -43.53314 10706 ft 332 kts 184°
2026-04-27 08:21 -22.48736 -43.52842 10000 ft 329 kts 161°
2026-04-27 08:21 -22.50822 -43.51874 9247 ft 322 kts 161°
2026-04-27 08:21 -22.52949 -43.51206 8501 ft 315 kts 172°
2026-04-27 08:21 -22.55093 -43.51000 7781 ft 307 kts 183°
2026-04-27 08:22 -22.57208 -43.51143 7075 ft 302 kts 188°
2026-04-27 08:22 -22.59266 -43.51384 6550 ft 292 kts 188°
2026-04-27 08:22 -22.61224 -43.51637 6075 ft 282 kts 188°
2026-04-27 08:22 -22.63123 -43.51883 5743 ft 267 kts 186°
2026-04-27 08:23 -22.64888 -43.51561 5522 ft 253 kts 154°
2026-04-27 08:23 -22.66129 -43.50294 5117 ft 245 kts 124°
2026-04-27 08:23 -22.66983 -43.48697 4596 ft 243 kts 119°
2026-04-27 08:23 -22.67812 -43.47120 4113 ft 239 kts 120°
2026-04-27 08:24 -22.68682 -43.45596 3666 ft 236 kts 122°
2026-04-27 08:24 -22.69578 -43.44120 3242 ft 231 kts 123°
2026-04-27 08:24 -22.70459 -43.42725 3069 ft 216 kts 123°
2026-04-27 08:24 -22.71298 -43.41422 3047 ft 204 kts 124°
2026-04-27 08:25 -22.72084 -43.40216 3043 ft 189 kts 124°
2026-04-27 08:25 -22.72820 -43.39092 3050 ft 183 kts 124°
2026-04-27 08:25 -22.73568 -43.37955 2893 ft 187 kts 124°
2026-04-27 08:25 -22.74329 -43.36819 2589 ft 186 kts 126°
2026-04-27 08:26 -22.75105 -43.35708 2207 ft 183 kts 125°
2026-04-27 08:26 -22.75860 -43.34578 1704 ft 184 kts 122°
2026-04-27 08:26 -22.76540 -43.33455 1424 ft 171 kts 124°
2026-04-27 08:26 -22.77210 -43.32442 1197 ft 161 kts 125°
2026-04-27 08:27 -22.77844 -43.31486 968 ft 151 kts 124°
2026-04-27 08:27 -22.78428 -43.30588 790 ft 141 kts 125°
2026-04-27 08:27 -22.78996 -43.29731 676 ft 139 kts 126°
2026-04-27 08:27 -22.79566 -43.28890 518 ft 137 kts 124°
2026-04-27 08:28 -22.80119 -43.28049 386 ft 137 kts 125°
2026-04-27 08:28 -22.80679 -43.27216 254 ft 136 kts 124°
2026-04-27 08:28 -22.81225 -43.26383 100 ft 135 kts 125°
2026-04-27 08:28 -22.81749 -43.25600 27 ft 109 kts 127°
2026-04-27 08:29 -22.82128 -43.25032 27 ft 81 kts 126°
2026-04-27 08:29 -22.82310 -43.24757 25 ft 22 kts 125°
2026-04-27 08:29 -22.82353 -43.24616 26 ft 11 kts 99°
2026-04-27 08:29 -22.82359 -43.24573 23 ft 6 kts 97°
2026-04-27 08:30 -22.82366 -43.24517 25 ft 9 kts 97°
2026-04-27 08:30 -22.82345 -43.24468 26 ft 5 kts 17°
2026-04-27 08:30 -22.82315 -43.24480 26 ft 4 kts 324°
2026-04-27 08:30 -22.82305 -43.24494 25 ft 3 kts 307°
2026-04-27 08:31 -22.82290 -43.24515 24 ft 4 kts 307°
2026-04-27 08:31 -22.82269 -43.24545 28 ft 5 kts 305°
2026-04-27 08:31 -22.82243 -43.24586 28 ft 8 kts 305°
2026-04-27 08:31 -22.82220 -43.24621 23 ft 1 kts 305°
2026-04-27 08:32 -22.82211 -43.24635 24 ft 4 kts 305°
2026-04-27 08:32 -22.82190 -43.24667 25 ft 6 kts 305°
2026-04-27 08:32 -22.82161 -43.24713 26 ft 8 kts 305°
2026-04-27 08:32 -22.82127 -43.24765 29 ft 8 kts 305°
2026-04-27 08:33 -22.82105 -43.24799 31 ft 9 kts 306°
2026-04-27 08:33 -22.82055 -43.24871 27 ft 16 kts 306°
2026-04-27 08:33 -22.81987 -43.24972 27 ft 17 kts 306°
2026-04-27 08:33 -22.81914 -43.25081 29 ft 18 kts 306°
2026-04-27 08:34 -22.81838 -43.25196 28 ft 20 kts 305°
2026-04-27 08:34 -22.81752 -43.25255 30 ft 8 kts 11°
2026-04-27 08:34 -22.81704 -43.25215 27 ft 11 kts 40°
2026-04-27 08:34 -22.81653 -43.25146 29 ft 12 kts 85°
2026-04-27 08:35 -22.81691 -43.25064 28 ft 13 kts 125°
2026-04-27 08:35 -22.81746 -43.24979 28 ft 15 kts 124°
2026-04-27 08:35 -22.81841 -43.24835 29 ft 27 kts 126°
2026-04-27 08:35 -22.81934 -43.24687 28 ft 17 kts 114°
2026-04-27 08:36 -22.81959 -43.24560 28 ft 17 kts 114°
2026-04-27 08:36 -22.82027 -43.24453 29 ft 18 kts 127°
2026-04-27 08:36 -22.82101 -43.24339 27 ft 18 kts 122°
2026-04-27 08:36 -22.82121 -43.24254 30 ft 4 kts 63°
2026-04-27 08:37 -22.82084 -43.24226 29 ft 14 kts 35°
2026-04-27 08:37 -22.81974 -43.24141 30 ft 21 kts 36°
2026-04-27 08:37 -22.81914 -43.24070 29 ft 9 kts 58°
2026-04-27 08:37 -22.81878 -43.24026 27 ft 4 kts 39°
2026-04-27 08:38 -22.81868 -43.24019 28 ft 2 kts 28°
2026-04-27 08:38 -22.81862 -43.24015 30 ft 3 kts 35°
2026-04-27 08:38 -22.81854 -43.24008 30 ft 0 kts 35°
2026-04-27 08:38 -22.81852 -43.24007 30 ft 0 kts 35°
2026-04-27 08:39 -22.81853 -43.24029 31 ft 0 kts 52°
2026-04-27 08:41 -22.81849 -43.24023 31 ft 0 kts 52°
2026-04-27 08:41 -22.81848 -43.24022 31 ft 0 kts 52°